| time (UTC) | temp F | wind direction | speed MPH | gust MPH | rain 1hr in | rain 24hr in | rain mn in | humidity % | barometer mb |
| 20260903031425 | 64 | 217 | 5.0 | 15.0 | 0.00 | 0.00 | 0.00 | 70 | 1007.0 |
| 20260903031323 | 64 | 156 | 6.0 | 15.0 | 0.00 | 0.00 | 0.00 | 69 | 1006.9 |
| 20260903031300 | 64 | 155 | 6.0 | 15.0 | 0.00 | 0.00 | 0.00 | 70 | 1007.0 |
| 20260903031238 | 64 | 181 | 6.0 | 15.0 | 0.00 | 0.00 | 0.00 | 69 | 1006.9 |
| 20260903031218 | 64 | 204 | 6.0 | 11.0 | 0.00 | 0.00 | 0.00 | 69 | 1006.9 |
| 20260903030908 | 64 | 175 | 3.0 | 11.0 | 0.00 | 0.00 | 0.00 | 70 | 1006.9 |
| 20260903030846 | 64 | 209 | 4.0 | 11.0 | 0.00 | 0.00 | 0.00 | 70 | 1006.8 |
| 20260903030515 | 64 | 240 | 2.0 | 10.0 | 0.00 | 0.00 | 0.00 | 70 | 1006.8 |
| 20260903030418 | 64 | 181 | 3.0 | 10.0 | 0.00 | 0.00 | 0.00 | 70 | 1006.8 |
| 20260903030316 | 64 | 192 | 3.0 | 10.0 | 0.00 | 0.00 | 0.00 | 70 | 1006.8 |
| 20260903030216 | 64 | 142 | 4.0 | 10.0 | 0.00 | 0.00 | 0.00 | 70 | 1006.8 |
| 20260903030115 | 64 | 216 | 4.0 | 10.0 | 0.00 | 0.00 | 0.00 | 70 | 1006.7 |
| 20260903030014 | 64 | 173 | 2.0 | 8.0 | 0.00 | 0.00 | 0.00 | 71 | 1006.7 |
| 20260903025920 | 64 | 316 | 3.0 | 8.0 | 0.00 | 0.00 | 0.00 | 71 | 1006.8 |
| 20260903025811 | 64 | 225 | 3.0 | 7.0 | 0.00 | 0.00 | 0.00 | 70 | 1006.7 |
| 20260903025729 | 64 | 185 | 3.0 | 14.0 | 0.00 | 0.00 | 0.00 | 70 | 1006.7 |
| 20260903025707 | 64 | 158 | 3.0 | 14.0 | 0.00 | 0.00 | 0.00 | 71 | 1006.8 |
| 20260903025645 | 64 | 223 | 3.0 | 14.0 | 0.00 | 0.00 | 0.00 | 71 | 1006.8 |
| 20260903025306 | 64 | 331 | 4.0 | 14.0 | 0.00 | 0.00 | 0.00 | 71 | 1006.8 |
| 20260903025205 | 64 | 184 | 4.0 | 14.0 | 0.00 | 0.00 | 0.00 | 71 | 1006.7 |
| 20260903025111 | 64 | 323 | 4.0 | 14.0 | 0.00 | 0.00 | 0.00 | 71 | 1006.7 |
| 20260903025048 | 64 | 182 | 5.0 | 14.0 | 0.00 | 0.00 | 0.00 | 71 | 1006.6 |
| 20260903025024 | 64 | 163 | 5.0 | 14.0 | 0.00 | 0.00 | 0.00 | 71 | 1006.7 |
| 20260903024948 | 64 | 166 | 4.0 | 14.0 | 0.00 | 0.00 | 0.00 | 71 | 1006.6 |
| 20260903024925 | 64 | 210 | 2.0 | 6.0 | 0.00 | 0.00 | 0.00 | 71 | 1006.7 |
| 20260903024903 | 64 | 178 | 2.0 | 6.0 | 0.00 | 0.00 | 0.00 | 71 | 1006.6 |
| 20260903024302 | 64 | 172 | 2.0 | 6.0 | 0.00 | 0.00 | 0.00 | 71 | 1006.7 |
| 20260903024224 | 64 | 262 | 2.0 | 6.0 | 0.00 | 0.00 | 0.00 | 71 | 1006.7 |
| 20260903024203 | 64 | 215 | 2.0 | 6.0 | 0.00 | 0.00 | 0.00 | 71 | 1006.7 |
| 20260903024141 | 64 | 219 | 3.0 | 6.0 | 0.00 | 0.00 | 0.00 | 71 | 1006.6 |
| 20260903024119 | 64 | 253 | 3.0 | 6.0 | 0.00 | 0.00 | 0.00 | 71 | 1006.7 |
| 20260903024045 | 64 | 146 | 1.0 | 7.0 | 0.00 | 0.00 | 0.00 | 71 | 1006.7 |
| 20260903023755 | 65 | 290 | 1.0 | 7.0 | 0.00 | 0.00 | 0.00 | 71 | 1006.7 |
| 20260903023734 | 65 | 167 | 2.0 | 7.0 | 0.00 | 0.00 | 0.00 | 70 | 1006.8 |
| 20260903023713 | 65 | 167 | 1.0 | 7.0 | 0.00 | 0.00 | 0.00 | 70 | 1006.7 |
| 20260903023100 | 65 | 150 | 3.0 | 9.0 | 0.00 | 0.00 | 0.00 | 70 | 1006.8 |
| 20260903022952 | 65 | 276 | 3.0 | 9.0 | 0.00 | 0.00 | 0.00 | 69 | 1006.9 |
| 20260903022858 | 65 | 187 | 2.0 | 9.0 | 0.00 | 0.00 | 0.00 | 69 | 1006.9 |
| 20260903022751 | 65 | 213 | 2.0 | 9.0 | 0.00 | 0.00 | 0.00 | 68 | 1006.8 |
| 20260903022707 | 65 | 195 | 2.0 | 9.0 | 0.00 | 0.00 | 0.00 | 68 | 1006.8 |
| 20260903022645 | 65 | 189 | 3.0 | 9.0 | 0.00 | 0.00 | 0.00 | 68 | 1006.8 |
| 20260903022623 | 65 | 209 | 5.0 | 9.0 | 0.00 | 0.00 | 0.00 | 67 | 1006.9 |
| 20260903022248 | 65 | 151 | 2.0 | 9.0 | 0.00 | 0.00 | 0.00 | 67 | 1006.8 |
| 20260903022148 | 65 | 165 | 3.0 | 7.0 | 0.00 | 0.00 | 0.00 | 67 | 1006.9 |
| 20260903022047 | 65 | 265 | 3.0 | 7.0 | 0.00 | 0.00 | 0.00 | 67 | 1006.9 |
| 20260903021946 | 65 | 192 | 2.0 | 7.0 | 0.00 | 0.00 | 0.00 | 66 | 1007.0 |
| 20260903021911 | 65 | 174 | 3.0 | 7.0 | 0.00 | 0.00 | 0.00 | 66 | 1006.9 |
| 20260903021835 | 65 | 254 | 3.0 | 7.0 | 0.00 | 0.00 | 0.00 | 66 | 1006.9 |
| 20260903021814 | 66 | 202 | 3.0 | 7.0 | 0.00 | 0.00 | 0.00 | 66 | 1006.9 |
| 20260903021443 | 66 | 205 | 3.0 | 7.0 | 0.00 | 0.00 | 0.00 | 66 | 1006.9 |
| 20260903021359 | 66 | 209 | 3.0 | 7.0 | 0.00 | 0.00 | 0.00 | 65 | 1006.9 |
| 20260903021322 | 66 | 223 | 3.0 | 7.0 | 0.00 | 0.00 | 0.00 | 65 | 1006.9 |
| 20260903021300 | 66 | 259 | 3.0 | 7.0 | 0.00 | 0.00 | 0.00 | 65 | 1006.9 |
| 20260903021238 | 66 | 221 | 3.0 | 16.0 | 0.00 | 0.00 | 0.00 | 65 | 1006.9 |
| 20260903020944 | 66 | 250 | 2.0 | 16.0 | 0.00 | 0.00 | 0.00 | 64 | 1006.9 |
| 20260903020911 | 66 | 211 | 2.0 | 16.0 | 0.00 | 0.00 | 0.00 | 64 | 1006.8 |
| 20260903020607 | 66 | 207 | 4.0 | 16.0 | 0.00 | 0.00 | 0.00 | 63 | 1006.8 |
| 20260903020543 | 66 | 183 | 4.0 | 16.0 | 0.00 | 0.00 | 0.00 | 63 | 1006.8 |
| 20260903020524 | 66 | 245 | 5.0 | 16.0 | 0.00 | 0.00 | 0.00 | 63 | 1006.8 |
| 20260903020138 | 66 | 253 | 3.0 | 16.0 | 0.00 | 0.00 | 0.00 | 62 | 1006.8 |
| 20260903020037 | 66 | 201 | 3.0 | 14.0 | 0.00 | 0.00 | 0.00 | 63 | 1006.8 |
| 20260903015936 | 66 | 211 | 3.0 | 14.0 | 0.00 | 0.00 | 0.00 | 62 | 1006.8 |
| 20260903015845 | 66 | 150 | 2.0 | 14.0 | 0.00 | 0.00 | 0.00 | 62 | 1006.8 |
| 20260903015734 | 66 | 215 | 5.0 | 14.0 | 0.00 | 0.00 | 0.00 | 62 | 1006.7 |
| 20260903015634 | 66 | 200 | 5.0 | 14.0 | 0.00 | 0.00 | 0.00 | 62 | 1006.7 |
| 20260903015533 | 66 | 203 | 4.0 | 14.0 | 0.00 | 0.00 | 0.00 | 62 | 1006.8 |
| 20260903015432 | 67 | 234 | 3.0 | 9.0 | 0.00 | 0.00 | 0.00 | 62 | 1006.8 |
| 20260903015341 | 67 | 211 | 4.0 | 7.0 | 0.00 | 0.00 | 0.00 | 62 | 1006.8 |
| 20260903015242 | 67 | 233 | 4.0 | 7.0 | 0.00 | 0.00 | 0.00 | 61 | 1006.8 |
| 20260903015221 | 67 | 232 | 4.0 | 7.0 | 0.00 | 0.00 | 0.00 | 61 | 1006.7 |
| 20260903015159 | 67 | 182 | 4.0 | 10.0 | 0.00 | 0.00 | 0.00 | 61 | 1006.7 |
| 20260903014837 | 67 | 180 | 4.0 | 10.0 | 0.00 | 0.00 | 0.00 | 61 | 1006.7 |
| 20260903014729 | 66 | 158 | 4.0 | 10.0 | 0.00 | 0.00 | 0.00 | 61 | 1006.7 |
| 20260903014629 | 67 | 234 | 2.0 | 10.0 | 0.00 | 0.00 | 0.00 | 61 | 1006.7 |
| 20260903014559 | 67 | 265 | 2.0 | 10.0 | 0.00 | 0.00 | 0.00 | 61 | 1006.7 |
| 20260903014535 | 67 | 214 | 3.0 | 10.0 | 0.00 | 0.00 | 0.00 | 61 | 1006.7 |
| 20260903014514 | 67 | 221 | 3.0 | 10.0 | 0.00 | 0.00 | 0.00 | 61 | 1006.7 |
| 20260903014128 | 67 | 183 | 4.0 | 10.0 | 0.00 | 0.00 | 0.00 | 61 | 1006.7 |
| 20260903014028 | 67 | 238 | 4.0 | 12.0 | 0.00 | 0.00 | 0.00 | 61 | 1006.6 |
| 20260903013927 | 67 | 194 | 4.0 | 12.0 | 0.00 | 0.00 | 0.00 | 61 | 1006.6 |
| 20260903013830 | 67 | 179 | 4.0 | 12.0 | 0.00 | 0.00 | 0.00 | 61 | 1006.6 |
| 20260903013727 | 67 | 246 | 4.0 | 12.0 | 0.00 | 0.00 | 0.00 | 61 | 1006.6 |
| 20260903013627 | 67 | 144 | 4.0 | 12.0 | 0.00 | 0.00 | 0.00 | 61 | 1006.6 |
| 20260903013524 | 67 | 102 | 4.0 | 12.0 | 0.00 | 0.00 | 0.00 | 61 | 1006.6 |
| 20260903013438 | 67 | 288 | 4.0 | 12.0 | 0.00 | 0.00 | 0.00 | 61 | 1006.5 |
| 20260903013415 | 67 | 238 | 5.0 | 12.0 | 0.00 | 0.00 | 0.00 | 60 | 1006.5 |
| 20260903013340 | 67 | 246 | 5.0 | 12.0 | 0.00 | 0.00 | 0.00 | 60 | 1006.5 |
| 20260903013320 | 67 | 274 | 6.0 | 12.0 | 0.00 | 0.00 | 0.00 | 60 | 1006.5 |
| 20260903013027 | 67 | 200 | 4.0 | 15.0 | 0.00 | 0.00 | 0.00 | 60 | 1006.5 |
| 20260903013005 | 67 | 229 | 3.0 | 15.0 | 0.00 | 0.00 | 0.00 | 60 | 1006.5 |
| 20260903012657 | 67 | 215 | 4.0 | 15.0 | 0.00 | 0.00 | 0.00 | 60 | 1006.5 |
| 20260903012637 | 67 | 161 | 4.0 | 15.0 | 0.00 | 0.00 | 0.00 | 60 | 1006.4 |
| 20260903012615 | 67 | 262 | 5.0 | 15.0 | 0.00 | 0.00 | 0.00 | 60 | 1006.4 |
| 20260903012307 | 67 | 292 | 4.0 | 15.0 | 0.00 | 0.00 | 0.00 | 60 | 1006.4 |
| 20260903012247 | 67 | 270 | 5.0 | 15.0 | 0.00 | 0.00 | 0.00 | 60 | 1006.5 |
| 20260903011915 | 67 | 202 | 5.0 | 13.0 | 0.00 | 0.00 | 0.00 | 59 | 1006.4 |
| 20260903011848 | 67 | 223 | 5.0 | 13.0 | 0.00 | 0.00 | 0.00 | 59 | 1006.4 |
| 20260903011809 | 67 | 229 | 5.0 | 13.0 | 0.00 | 0.00 | 0.00 | 59 | 1006.4 |
| 20260903011748 | 67 | 167 | 3.0 | 12.0 | 0.00 | 0.00 | 0.00 | 59 | 1006.4 |
| 20260903011728 | 67 | 192 | 4.0 | 12.0 | 0.00 | 0.00 | 0.00 | 59 | 1006.4 |
| 20260903011434 | 67 | 207 | 4.0 | 12.0 | 0.00 | 0.00 | 0.00 | 59 | 1006.4 |
| 20260903011359 | 67 | 225 | 5.0 | 12.0 | 0.00 | 0.00 | 0.00 | 59 | 1006.3 |
| 20260903011107 | 67 | 224 | 5.0 | 12.0 | 0.00 | 0.00 | 0.00 | 58 | 1006.4 |
| 20260903011047 | 67 | 183 | 5.0 | 12.0 | 0.00 | 0.00 | 0.00 | 58 | 1006.3 |
| 20260903010711 | 67 | 174 | 6.0 | 11.0 | 0.00 | 0.00 | 0.00 | 58 | 1006.3 |
| 20260903010610 | 68 | 194 | 4.0 | 13.0 | 0.00 | 0.00 | 0.00 | 58 | 1006.4 |
| 20260903010507 | 68 | 290 | 2.0 | 13.0 | 0.00 | 0.00 | 0.00 | 58 | 1006.3 |
| 20260903010406 | 68 | 147 | 3.0 | 13.0 | 0.00 | 0.00 | 0.00 | 58 | 1006.4 |
| 20260903010315 | 68 | 196 | 3.0 | 13.0 | 0.00 | 0.00 | 0.00 | 58 | 1006.3 |
| 20260903010206 | 68 | 181 | 4.0 | 13.0 | 0.00 | 0.00 | 0.00 | 58 | 1006.3 |
| 20260903010105 | 68 | 240 | 4.0 | 13.0 | 0.00 | 0.00 | 0.00 | 58 | 1006.4 |
| 20260903010002 | 68 | 252 | 3.0 | 13.0 | 0.00 | 0.00 | 0.00 | 57 | 1006.3 |
| 20260903005901 | 68 | 196 | 3.0 | 13.0 | 0.00 | 0.00 | 0.00 | 57 | 1006.3 |
| 20260903005829 | 68 | 190 | 2.0 | 17.0 | 0.00 | 0.00 | 0.00 | 57 | 1006.3 |
| 20260903005751 | 68 | 282 | 2.0 | 17.0 | 0.00 | 0.00 | 0.00 | 57 | 1006.3 |
| 20260903005731 | 68 | 188 | 3.0 | 17.0 | 0.00 | 0.00 | 0.00 | 57 | 1006.3 |
| 20260903005401 | 68 | 241 | 3.0 | 17.0 | 0.00 | 0.00 | 0.00 | 57 | 1006.3 |
| 20260903005309 | 68 | 171 | 4.0 | 17.0 | 0.00 | 0.00 | 0.00 | 57 | 1006.3 |
| 20260903005200 | 68 | 168 | 5.0 | 17.0 | 0.00 | 0.00 | 0.00 | 57 | 1006.3 |
| 20260903005101 | 68 | 242 | 5.0 | 17.0 | 0.00 | 0.00 | 0.00 | 57 | 1006.3 |
| 20260903005031 | 68 | 247 | 6.0 | 17.0 | 0.00 | 0.00 | 0.00 | 57 | 1006.3 |
| 20260903005009 | 68 | 205 | 7.0 | 17.0 | 0.00 | 0.00 | 0.00 | 57 | 1006.4 |
| 20260903004947 | 68 | 219 | 7.0 | 15.0 | 0.00 | 0.00 | 0.00 | 57 | 1006.4 |
| 20260903004640 | 68 | 214 | 4.0 | 15.0 | 0.00 | 0.00 | 0.00 | 57 | 1006.3 |
| 20260903004618 | 68 | 141 | 4.0 | 15.0 | 0.00 | 0.00 | 0.00 | 57 | 1006.3 |
| 20260903004557 | 68 | 186 | 4.0 | 15.0 | 0.00 | 0.00 | 0.00 | 57 | 1006.4 |
| 20260903004536 | 68 | 196 | 5.0 | 15.0 | 0.00 | 0.00 | 0.00 | 57 | 1006.4 |
| 20260903004459 | 68 | 212 | 5.0 | 15.0 | 0.00 | 0.00 | 0.00 | 57 | 1006.3 |
| 20260903003904 | 68 | 252 | 6.0 | 15.0 | 0.00 | 0.00 | 0.00 | 57 | 1006.4 |
| 20260903003802 | 68 | 219 | 5.0 | 15.0 | 0.00 | 0.00 | 0.00 | 57 | 1006.5 |
| 20260903003701 | 68 | 236 | 5.0 | 15.0 | 0.00 | 0.00 | 0.00 | 57 | 1006.4 |
| 20260903003600 | 68 | 207 | 6.0 | 14.0 | 0.00 | 0.00 | 0.00 | 57 | 1006.3 |
| 20260903003500 | 68 | 215 | 6.0 | 14.0 | 0.00 | 0.00 | 0.00 | 57 | 1006.4 |
| 20260903003400 | 67 | 260 | 4.0 | 14.0 | 0.00 | 0.00 | 0.00 | 58 | 1006.4 |
| 20260903003259 | 67 | 183 | 4.0 | 14.0 | 0.00 | 0.00 | 0.00 | 58 | 1006.4 |
| 20260903003158 | 67 | 221 | 4.0 | 14.0 | 0.00 | 0.00 | 0.00 | 58 | 1006.5 |
| 20260903003110 | 67 | 200 | 5.0 | 14.0 | 0.00 | 0.00 | 0.00 | 58 | 1006.4 |
| 20260903003047 | 67 | 265 | 4.0 | 14.0 | 0.00 | 0.00 | 0.00 | 59 | 1006.4 |
| 20260903003027 | 67 | 254 | 3.0 | 14.0 | 0.00 | 0.00 | 0.00 | 59 | 1006.4 |
| 20260903002708 | 67 | 248 | 4.0 | 12.0 | 0.00 | 0.00 | 0.00 | 59 | 1006.5 |
| 20260903002645 | 67 | 248 | 4.0 | 12.0 | 0.00 | 0.00 | 0.00 | 59 | 1006.4 |
| 20260903002625 | 67 | 200 | 4.0 | 15.0 | 0.00 | 0.00 | 0.00 | 59 | 1006.3 |
| 20260903002255 | 68 | 220 | 3.0 | 15.0 | 0.00 | 0.00 | 0.00 | 59 | 1006.4 |
| 20260903002151 | 68 | 178 | 4.0 | 15.0 | 0.00 | 0.00 | 0.00 | 59 | 1006.4 |
| 20260903002051 | 68 | 228 | 5.0 | 15.0 | 0.00 | 0.00 | 0.00 | 59 | 1006.4 |
| 20260903001950 | 68 | 237 | 5.0 | 15.0 | 0.00 | 0.00 | 0.00 | 59 | 1006.4 |
| 20260903001850 | 68 | 151 | 4.0 | 15.0 | 0.00 | 0.00 | 0.00 | 58 | 1006.4 |
| 20260903001750 | 68 | 223 | 4.0 | 15.0 | 0.00 | 0.00 | 0.00 | 58 | 1006.3 |
| 20260903001648 | 68 | 293 | 5.0 | 15.0 | 0.00 | 0.00 | 0.00 | 58 | 1006.4 |
| 20260903001602 | 68 | 193 | 5.0 | 15.0 | 0.00 | 0.00 | 0.00 | 57 | 1006.4 |
| 20260903001540 | 68 | 270 | 4.0 | 12.0 | 0.00 | 0.00 | 0.00 | 57 | 1006.4 |
| 20260903001521 | 68 | 207 | 5.0 | 12.0 | 0.00 | 0.00 | 0.00 | 57 | 1006.4 |
| 20260903001145 | 68 | 257 | 5.0 | 12.0 | 0.00 | 0.00 | 0.00 | 56 | 1006.4 |
| 20260903001045 | 68 | 175 | 5.0 | 10.0 | 0.00 | 0.00 | 0.00 | 56 | 1006.4 |
| 20260903000945 | 69 | 238 | 4.0 | 10.0 | 0.00 | 0.00 | 0.00 | 56 | 1006.4 |
| 20260903000843 | 69 | 263 | 3.0 | 10.0 | 0.00 | 0.00 | 0.00 | 55 | 1006.3 |
| 20260903000750 | 69 | 240 | 3.0 | 10.0 | 0.00 | 0.00 | 0.00 | 55 | 1006.4 |
| 20260903000642 | 69 | 196 | 3.0 | 10.0 | 0.00 | 0.00 | 0.00 | 55 | 1006.3 |
| 20260903000541 | 69 | 280 | 3.0 | 10.0 | 0.00 | 0.00 | 0.00 | 55 | 1006.3 |
| 20260903000441 | 69 | 230 | 4.0 | 10.0 | 0.00 | 0.00 | 0.00 | 55 | 1006.3 |
| 20260903000341 | 69 | 338 | 4.0 | 11.0 | 0.00 | 0.00 | 0.00 | 54 | 1006.3 |
| 20260903000249 | 69 | 123 | 4.0 | 13.0 | 0.00 | 0.00 | 0.00 | 54 | 1006.3 |
| 20260903000139 | 69 | 244 | 4.0 | 13.0 | 0.00 | 0.00 | 0.00 | 54 | 1006.3 |
| 20260903000039 | 69 | 240 | 3.0 | 13.0 | 0.00 | 0.00 | 0.00 | 54 | 1006.3 |
| 20260902235938 | 69 | 198 | 3.0 | 13.0 | 0.00 | 0.00 | 0.00 | 54 | 1006.2 |
| 20260902235837 | 69 | 217 | 3.0 | 13.0 | 0.00 | 0.00 | 0.00 | 53 | 1006.3 |
| 20260902235743 | 69 | 253 | 3.0 | 13.0 | 0.00 | 0.00 | 0.00 | 53 | 1006.2 |
| 20260902235638 | 69 | 259 | 4.0 | 13.0 | 0.00 | 0.00 | 0.00 | 53 | 1006.2 |
| 20260902235611 | 69 | 287 | 6.0 | 13.0 | 0.00 | 0.00 | 0.00 | 53 | 1006.3 |
| 20260902235549 | 69 | 213 | 6.0 | 13.0 | 0.00 | 0.00 | 0.00 | 53 | 1006.2 |
| 20260902235528 | 69 | 150 | 5.0 | 13.0 | 0.00 | 0.00 | 0.00 | 53 | 1006.1 |
| 20260902235220 | 69 | 236 | 4.0 | 13.0 | 0.00 | 0.00 | 0.00 | 52 | 1006.2 |
| 20260902235158 | 70 | 213 | 5.0 | 13.0 | 0.00 | 0.00 | 0.00 | 52 | 1006.3 |
| 20260902235137 | 70 | 215 | 6.0 | 13.0 | 0.00 | 0.00 | 0.00 | 52 | 1006.2 |
| 20260902235116 | 70 | 164 | 6.0 | 13.0 | 0.00 | 0.00 | 0.00 | 51 | 1006.2 |
| 20260902234810 | 70 | 269 | 3.0 | 13.0 | 0.00 | 0.00 | 0.00 | 51 | 1006.3 |
| 20260902234749 | 70 | 184 | 4.0 | 13.0 | 0.00 | 0.00 | 0.00 | 51 | 1006.1 |
| 20260902234456 | 70 | 259 | 4.0 | 13.0 | 0.00 | 0.00 | 0.00 | 51 | 1006.2 |
| 20260902234435 | 70 | 172 | 5.0 | 13.0 | 0.00 | 0.00 | 0.00 | 50 | 1006.2 |
| 20260902234401 | 70 | 143 | 5.0 | 12.0 | 0.00 | 0.00 | 0.00 | 50 | 1006.1 |
| 20260902234341 | 70 | 302 | 5.0 | 12.0 | 0.00 | 0.00 | 0.00 | 50 | 1006.2 |
| 20260902234319 | 70 | 254 | 4.0 | 12.0 | 0.00 | 0.00 | 0.00 | 50 | 1006.2 |
| 20260902234259 | 70 | 194 | 4.0 | 14.0 | 0.00 | 0.00 | 0.00 | 50 | 1006.1 |
| 20260902233722 | 70 | 208 | 5.0 | 15.0 | 0.00 | 0.00 | 0.00 | 50 | 1006.0 |
| 20260902233431 | 70 | 163 | 5.0 | 15.0 | 0.00 | 0.00 | 0.00 | 51 | 1006.0 |
| 20260902233410 | 70 | 218 | 5.0 | 15.0 | 0.00 | 0.00 | 0.00 | 52 | 1006.0 |
| 20260902233333 | 70 | 263 | 6.0 | 15.0 | 0.00 | 0.00 | 0.00 | 52 | 1005.9 |
| 20260902233312 | 70 | 252 | 6.0 | 15.0 | 0.00 | 0.00 | 0.00 | 52 | 1006.0 |
| 20260902233251 | 70 | 261 | 7.0 | 15.0 | 0.00 | 0.00 | 0.00 | 51 | 1005.9 |
| 20260902233230 | 70 | 232 | 10.0 | 15.0 | 0.00 | 0.00 | 0.00 | 52 | 1005.9 |
| 20260902233209 | 70 | 271 | 9.0 | 15.0 | 0.00 | 0.00 | 0.00 | 51 | 1006.0 |
| 20260902232329 | 70 | 254 | 6.0 | 15.0 | 0.00 | 0.00 | 0.00 | 53 | 1006.0 |
| 20260902232229 | 70 | 275 | 6.0 | 16.0 | 0.00 | 0.00 | 0.00 | 53 | 1006.0 |
| 20260902232129 | 70 | 278 | 6.0 | 16.0 | 0.00 | 0.00 | 0.00 | 53 | 1006.0 |
| 20260902232029 | 70 | 261 | 7.0 | 16.0 | 0.00 | 0.00 | 0.00 | 53 | 1006.0 |
| 20260902231958 | 70 | 232 | 7.0 | 16.0 | 0.00 | 0.00 | 0.00 | 53 | 1006.0 |
| 20260902231936 | 70 | 314 | 4.0 | 16.0 | 0.00 | 0.00 | 0.00 | 54 | 1006.1 |
| 20260902231914 | 70 | 237 | 5.0 | 16.0 | 0.00 | 0.00 | 0.00 | 54 | 1006.0 |
| 20260902231529 | 70 | 254 | 7.0 | 16.0 | 0.00 | 0.00 | 0.00 | 54 | 1006.0 |
| 20260902231429 | 70 | 286 | 7.0 | 16.0 | 0.00 | 0.00 | 0.00 | 54 | 1006.0 |
| 20260902231328 | 70 | 243 | 6.0 | 17.0 | 0.00 | 0.00 | 0.00 | 55 | 1006.1 |
| 20260902231229 | 70 | 221 | 5.0 | 17.0 | 0.00 | 0.00 | 0.00 | 56 | 1006.2 |
| 20260902231129 | 70 | 248 | 7.0 | 17.0 | 0.00 | 0.00 | 0.00 | 56 | 1006.2 |
| 20260902231108 | 70 | 163 | 8.0 | 17.0 | 0.00 | 0.00 | 0.00 | 56 | 1006.1 |
| 20260902231046 | 70 | 257 | 7.0 | 17.0 | 0.00 | 0.00 | 0.00 | 56 | 1006.1 |
| 20260902231026 | 69 | 247 | 5.0 | 17.0 | 0.00 | 0.00 | 0.00 | 56 | 1006.1 |
| 20260902231005 | 69 | 254 | 4.0 | 17.0 | 0.00 | 0.00 | 0.00 | 57 | 1006.1 |
| 20260902230928 | 69 | 144 | 7.0 | 17.0 | 0.00 | 0.00 | 0.00 | 57 | 1006.1 |
| 20260902230329 | 69 | 290 | 7.0 | 16.0 | 0.00 | 0.00 | 0.00 | 58 | 1006.1 |
| 20260902230229 | 69 | 268 | 5.0 | 16.0 | 0.00 | 0.00 | 0.00 | 59 | 1006.0 |
| 20260902230129 | 69 | 284 | 5.0 | 18.0 | 0.00 | 0.00 | 0.00 | 59 | 1006.0 |
| 20260902230028 | 69 | 168 | 5.0 | 18.0 | 0.00 | 0.00 | 0.00 | 59 | 1005.9 |
| 20260902225927 | 69 | 242 | 2.0 | 18.0 | 0.00 | 0.00 | 0.00 | 60 | 1006.0 |
| 20260902225827 | 69 | 188 | 3.0 | 18.0 | 0.00 | 0.00 | 0.00 | 60 | 1005.9 |
| 20260902225727 | 69 | 240 | 6.0 | 18.0 | 0.00 | 0.00 | 0.00 | 61 | 1005.9 |
| 20260902225626 | 69 | 122 | 7.0 | 22.0 | 0.00 | 0.00 | 0.00 | 61 | 1005.9 |
| 20260902225525 | 69 | 247 | 6.0 | 22.0 | 0.00 | 0.00 | 0.00 | 61 | 1005.9 |
| 20260902225425 | 69 | 264 | 7.0 | 22.0 | 0.00 | 0.00 | 0.00 | 61 | 1006.0 |
| 20260902225324 | 69 | 262 | 9.0 | 22.0 | 0.00 | 0.00 | 0.00 | 61 | 1006.0 |
| 20260902225229 | 69 | 143 | 9.0 | 22.0 | 0.00 | 0.00 | 0.00 | 61 | 1006.0 |
| 20260902225153 | 69 | 273 | 8.0 | 22.0 | 0.00 | 0.00 | 0.00 | 61 | 1006.0 |
| 20260902225130 | 69 | 283 | 7.0 | 22.0 | 0.00 | 0.00 | 0.00 | 61 | 1006.1 |
| 20260902225109 | 69 | 269 | 5.0 | 22.0 | 0.00 | 0.00 | 0.00 | 61 | 1006.2 |
| 20260902225049 | 69 | 275 | 7.0 | 22.0 | 0.00 | 0.00 | 0.00 | 61 | 1006.2 |
| 20260902224741 | 69 | 178 | 8.0 | 22.0 | 0.00 | 0.00 | 0.00 | 61 | 1006.0 |
| 20260902224722 | 69 | 136 | 9.0 | 22.0 | 0.00 | 0.00 | 0.00 | 61 | 1006.1 |
| 20260902224700 | 69 | 175 | 9.0 | 22.0 | 0.00 | 0.00 | 0.00 | 61 | 1006.0 |
| 20260902224637 | 69 | 262 | 7.0 | 20.0 | 0.00 | 0.00 | 0.00 | 61 | 1006.0 |
| 20260902224334 | 69 | 279 | 6.0 | 22.0 | 0.00 | 0.00 | 0.00 | 61 | 1006.0 |
| 20260902224046 | 69 | 263 | 7.0 | 22.0 | 0.00 | 0.00 | 0.00 | 60 | 1006.1 |
| 20260902223717 | 70 | 263 | 6.0 | 22.0 | 0.00 | 0.00 | 0.00 | 59 | 1006.1 |
| 20260902223614 | 70 | 263 | 6.0 | 22.0 | 0.00 | 0.00 | 0.00 | 58 | 1006.1 |
| 20260902223513 | 70 | 164 | 6.0 | 22.0 | 0.00 | 0.00 | 0.00 | 58 | 1006.0 |
| 20260902223412 | 71 | 237 | 7.0 | 22.0 | 0.00 | 0.00 | 0.00 | 57 | 1005.9 |
| 20260902223312 | 71 | 287 | 9.0 | 22.0 | 0.00 | 0.00 | 0.00 | 56 | 1005.8 |
| 20260902223212 | 72 | 186 | 8.0 | 22.0 | 0.00 | 0.00 | 0.00 | 54 | 1005.8 |
| 20260902223112 | 73 | 252 | 6.0 | 13.0 | 0.00 | 0.00 | 0.00 | 53 | 1006.1 |
| 20260902223013 | 74 | 180 | 6.0 | 13.0 | 0.00 | 0.00 | 0.00 | 51 | 1006.1 |
| 20260902222937 | 75 | 184 | 8.0 | 13.0 | 0.00 | 0.00 | 0.00 | 48 | 1006.1 |
| 20260902222914 | 75 | 221 | 7.0 | 13.0 | 0.00 | 0.00 | 0.00 | 46 | 1006.3 |
| 20260902222853 | 76 | 222 | 3.0 | 9.0 | 0.00 | 0.00 | 0.00 | 45 | 1006.2 |
| 20260902222509 | 76 | 217 | 2.0 | 4.0 | 0.00 | 0.00 | 0.00 | 44 | 1005.6 |
| 20260902222432 | 76 | 229 | 2.0 | 4.0 | 0.00 | 0.00 | 0.00 | 44 | 1005.4 |
| 20260902222410 | 76 | 175 | 2.0 | 4.0 | 0.00 | 0.00 | 0.00 | 43 | 1005.3 |
| 20260902222350 | 76 | 186 | 2.0 | 4.0 | 0.00 | 0.00 | 0.00 | 43 | 1005.2 |
| 20260902222005 | 76 | 123 | 1.0 | 4.0 | 0.00 | 0.00 | 0.00 | 44 | 1005.1 |
| 20260902221905 | 76 | 152 | 1.0 | 2.0 | 0.00 | 0.00 | 0.00 | 44 | 1005.0 |
| 20260902221806 | 76 | 171 | 1.0 | 2.0 | 0.00 | 0.00 | 0.00 | 43 | 1005.0 |
| 20260902221704 | 76 | 153 | 1.0 | 2.0 | 0.00 | 0.00 | 0.00 | 44 | 1004.9 |
| 20260902221603 | 76 | 111 | 1.0 | 2.0 | 0.00 | 0.00 | 0.00 | 46 | 1004.9 |
| 20260902221501 | 76 | 48 | 1.0 | 2.0 | 0.00 | 0.00 | 0.00 | 43 | 1005.0 |
| 20260902221403 | 76 | 117 | 0.0 | 2.0 | 0.00 | 0.00 | 0.00 | 43 | 1004.9 |
| 20260902221301 | 76 | 72 | 0.0 | 2.0 | 0.00 | 0.00 | 0.00 | 46 | 1004.9 |
| 20260902221204 | 76 | 9 | 0.0 | 2.0 | 0.00 | 0.00 | 0.00 | 44 | 1004.9 |
| 20260902221102 | 76 | 9 | 0.0 | 2.0 | 0.00 | 0.00 | 0.00 | 44 | 1004.8 |
| 20260902221004 | 76 | 9 | 0.0 | 2.0 | 0.00 | 0.00 | 0.00 | 44 | 1004.8 |
| 20260902220901 | 76 | 9 | 0.0 | 2.0 | 0.00 | 0.00 | 0.00 | 44 | 1004.8 |
| 20260902220802 | 76 | 9 | 1.0 | 2.0 | 0.00 | 0.00 | 0.00 | 44 | 1004.8 |
| 20260902220701 | 76 | 5 | 1.0 | 2.0 | 0.00 | 0.00 | 0.00 | 43 | 1004.7 |
| 20260902220600 | 76 | 5 | 1.0 | 2.0 | 0.00 | 0.00 | 0.00 | 44 | 1004.8 |
| 20260902220501 | 76 | 5 | 1.0 | 3.0 | 0.00 | 0.00 | 0.00 | 44 | 1004.8 |
| 20260902220401 | 76 | 5 | 1.0 | 3.0 | 0.00 | 0.00 | 0.00 | 45 | 1004.8 |
| 20260902220300 | 76 | 0 | 1.0 | 3.0 | 0.00 | 0.00 | 0.00 | 44 | 1004.8 |
| 20260902220227 | 76 | 15 | 0.0 | 3.0 | 0.00 | 0.00 | 0.00 | 44 | 1004.8 |
| 20260902220147 | 76 | 315 | 0.0 | 3.0 | 0.00 | 0.00 | 0.00 | 44 | 1004.8 |
| 20260902220129 | 76 | 69 | 1.0 | 3.0 | 0.00 | 0.00 | 0.00 | 44 | 1004.8 |
| 20260902215801 | 76 | 61 | 1.0 | 3.0 | 0.00 | 0.00 | 0.00 | 44 | 1004.8 |
| 20260902215701 | 76 | 58 | 1.0 | 3.0 | 0.00 | 0.00 | 0.00 | 45 | 1004.8 |
| 20260902215603 | 76 | 56 | 1.0 | 3.0 | 0.00 | 0.00 | 0.00 | 44 | 1004.7 |
| 20260902215502 | 76 | 57 | 1.0 | 3.0 | 0.00 | 0.00 | 0.00 | 45 | 1004.8 |
| 20260902215402 | 76 | 33 | 2.0 | 3.0 | 0.00 | 0.00 | 0.00 | 44 | 1004.8 |
| 20260902215302 | 76 | 53 | 1.0 | 3.0 | 0.00 | 0.00 | 0.00 | 44 | 1004.8 |
| 20260902215201 | 76 | 66 | 1.0 | 3.0 | 0.00 | 0.00 | 0.00 | 44 | 1004.8 |
| 20260902215102 | 76 | 125 | 1.0 | 2.0 | 0.00 | 0.00 | 0.00 | 43 | 1004.8 |
| 20260902215002 | 76 | 125 | 1.0 | 3.0 | 0.00 | 0.00 | 0.00 | 44 | 1004.8 |
| 20260902214858 | 76 | 51 | 1.0 | 3.0 | 0.00 | 0.00 | 0.00 | 44 | 1004.8 |
| 20260902214753 | 76 | 51 | 1.0 | 3.0 | 0.00 | 0.00 | 0.00 | 44 | 1004.9 |
| 20260902214653 | 76 | 68 | 1.0 | 5.0 | 0.00 | 0.00 | 0.00 | 44 | 1004.9 |
| 20260902214551 | 76 | 88 | 1.0 | 6.0 | 0.00 | 0.00 | 0.00 | 45 | 1004.9 |
| 20260902214451 | 76 | 49 | 1.0 | 6.0 | 0.00 | 0.00 | 0.00 | 44 | 1005.0 |
| 20260902214350 | 76 | 23 | 1.0 | 6.0 | 0.00 | 0.00 | 0.00 | 44 | 1005.0 |
| 20260902214249 | 76 | 9 | 1.0 | 6.0 | 0.00 | 0.00 | 0.00 | 44 | 1005.0 |
| 20260902214215 | 76 | 34 | 1.0 | 6.0 | 0.00 | 0.00 | 0.00 | 44 | 1005.0 |
| 20260902214138 | 76 | 53 | 1.0 | 6.0 | 0.00 | 0.00 | 0.00 | 44 | 1004.9 |
| 20260902214118 | 76 | 49 | 1.0 | 6.0 | 0.00 | 0.00 | 0.00 | 44 | 1005.0 |
| 20260902213746 | 76 | 83 | 2.0 | 6.0 | 0.00 | 0.00 | 0.00 | 43 | 1005.0 |
| 20260902213647 | 76 | 79 | 2.0 | 4.0 | 0.00 | 0.00 | 0.00 | 45 | 1005.0 |
| 20260902213545 | 76 | 352 | 2.0 | 4.0 | 0.00 | 0.00 | 0.00 | 44 | 1005.0 |
| 20260902213445 | 76 | 69 | 1.0 | 4.0 | 0.00 | 0.00 | 0.00 | 44 | 1005.0 |
| 20260902213344 | 76 | 70 | 1.0 | 4.0 | 0.00 | 0.00 | 0.00 | 43 | 1005.0 |
| 20260902213245 | 76 | 89 | 2.0 | 4.0 | 0.00 | 0.00 | 0.00 | 44 | 1005.0 |
| 20260902213144 | 76 | 85 | 2.0 | 4.0 | 0.00 | 0.00 | 0.00 | 43 | 1005.0 |
| 20260902213039 | 76 | 91 | 2.0 | 4.0 | 0.00 | 0.00 | 0.00 | 43 | 1005.0 |
| 20260902212938 | 76 | 71 | 2.0 | 5.0 | 0.00 | 0.00 | 0.00 | 43 | 1005.0 |
| 20260902212838 | 76 | 70 | 2.0 | 5.0 | 0.00 | 0.00 | 0.00 | 43 | 1005.0 |
| 20260902212736 | 76 | 102 | 2.0 | 5.0 | 0.00 | 0.00 | 0.00 | 44 | 1005.0 |
| 20260902212636 | 76 | 175 | 1.0 | 5.0 | 0.00 | 0.00 | 0.00 | 44 | 1005.0 |
| 20260902212536 | 76 | 90 | 1.0 | 5.0 | 0.00 | 0.00 | 0.00 | 44 | 1005.0 |
| 20260902212434 | 76 | 23 | 1.0 | 5.0 | 0.00 | 0.00 | 0.00 | 44 | 1005.0 |
| 20260902212335 | 76 | 55 | 2.0 | 5.0 | 0.00 | 0.00 | 0.00 | 45 | 1005.0 |
| 20260902212300 | 76 | 72 | 2.0 | 5.0 | 0.00 | 0.00 | 0.00 | 45 | 1005.0 |
| 20260902212237 | 76 | 92 | 2.0 | 5.0 | 0.00 | 0.00 | 0.00 | 43 | 1005.0 |
| 20260902212202 | 76 | 13 | 2.0 | 6.0 | 0.00 | 0.00 | 0.00 | 43 | 1005.0 |
| 20260902211831 | 76 | 352 | 1.0 | 6.0 | 0.00 | 0.00 | 0.00 | 44 | 1005.0 |
| 20260902211729 | 76 | 107 | 1.0 | 6.0 | 0.00 | 0.00 | 0.00 | 43 | 1005.0 |
| 20260902211630 | 76 | 125 | 2.0 | 6.0 | 0.00 | 0.00 | 0.00 | 43 | 1005.0 |
| 20260902211529 | 76 | 15 | 3.0 | 6.0 | 0.00 | 0.00 | 0.00 | 42 | 1005.0 |
| 20260902211429 | 76 | 98 | 2.0 | 6.0 | 0.00 | 0.00 | 0.00 | 42 | 1005.0 |
| 20260902211329 | 76 | 76 | 2.0 | 6.0 | 0.00 | 0.00 | 0.00 | 43 | 1005.0 |
| 20260902211229 | 76 | 98 | 2.0 | 6.0 | 0.00 | 0.00 | 0.00 | 43 | 1005.0 |
| 20260902211130 | 76 | 111 | 2.0 | 7.0 | 0.00 | 0.00 | 0.00 | 43 | 1005.0 |
| 20260902211029 | 76 | 124 | 3.0 | 7.0 | 0.00 | 0.00 | 0.00 | 43 | 1005.0 |
| 20260902210945 | 76 | 51 | 2.0 | 7.0 | 0.00 | 0.00 | 0.00 | 42 | 1005.0 |
| 20260902210922 | 76 | 66 | 1.0 | 7.0 | 0.00 | 0.00 | 0.00 | 41 | 1005.0 |
| 20260902210903 | 76 | 53 | 1.0 | 7.0 | 0.00 | 0.00 | 0.00 | 43 | 1005.0 |
| 20260902210529 | 76 | 11 | 1.0 | 7.0 | 0.00 | 0.00 | 0.00 | 42 | 1005.0 |
| 20260902210430 | 77 | 98 | 3.0 | 7.0 | 0.00 | 0.00 | 0.00 | 41 | 1005.0 |
| 20260902210328 | 77 | 109 | 4.0 | 7.0 | 0.00 | 0.00 | 0.00 | 41 | 1005.0 |
| 20260902210229 | 77 | 78 | 3.0 | 7.0 | 0.00 | 0.00 | 0.00 | 41 | 1005.0 |
| 20260902210130 | 77 | 85 | 2.0 | 6.0 | 0.00 | 0.00 | 0.00 | 42 | 1005.0 |
| 20260902210031 | 77 | 44 | 1.0 | 5.0 | 0.00 | 0.00 | 0.00 | 44 | 1005.0 |
| 20260902210005 | 77 | 65 | 1.0 | 5.0 | 0.00 | 0.00 | 0.00 | 42 | 1005.0 |
| 20260902205942 | 77 | 32 | 2.0 | 5.0 | 0.00 | 0.00 | 0.00 | 41 | 1005.1 |
| 20260902205922 | 77 | 335 | 2.0 | 5.0 | 0.00 | 0.00 | 0.00 | 42 | 1005.1 |
| 20260902205859 | 77 | 311 | 2.0 | 5.0 | 0.00 | 0.00 | 0.00 | 42 | 1005.1 |
| 20260902205556 | 77 | 338 | 2.0 | 4.0 | 0.00 | 0.00 | 0.00 | 42 | 1005.1 |
| 20260902205217 | 77 | 351 | 2.0 | 4.0 | 0.00 | 0.00 | 0.00 | 43 | 1005.2 |
| 20260902205114 | 77 | 330 | 2.0 | 4.0 | 0.00 | 0.00 | 0.00 | 43 | 1005.1 |
| 20260902205013 | 77 | 300 | 2.0 | 4.0 | 0.00 | 0.00 | 0.00 | 42 | 1005.1 |
| 20260902204912 | 77 | 299 | 2.0 | 4.0 | 0.00 | 0.00 | 0.00 | 42 | 1005.2 |
| 20260902204811 | 77 | 263 | 2.0 | 4.0 | 0.00 | 0.00 | 0.00 | 42 | 1005.1 |
| 20260902204710 | 77 | 317 | 2.0 | 4.0 | 0.00 | 0.00 | 0.00 | 41 | 1005.1 |
| 20260902204614 | 77 | 310 | 2.0 | 4.0 | 0.00 | 0.00 | 0.00 | 42 | 1005.2 |
| 20260902204508 | 77 | 302 | 2.0 | 4.0 | 0.00 | 0.00 | 0.00 | 42 | 1005.2 |
| 20260902204407 | 77 | 292 | 2.0 | 4.0 | 0.00 | 0.00 | 0.00 | 43 | 1005.2 |
| 20260902204307 | 76 | 337 | 1.0 | 4.0 | 0.00 | 0.00 | 0.00 | 43 | 1005.3 |
| 20260902204206 | 76 | 314 | 1.0 | 4.0 | 0.00 | 0.00 | 0.00 | 42 | 1005.3 |
| 20260902204111 | 76 | 263 | 2.0 | 4.0 | 0.00 | 0.00 | 0.00 | 41 | 1005.4 |
| 20260902204024 | 76 | 211 | 2.0 | 4.0 | 0.00 | 0.00 | 0.00 | 41 | 1005.4 |
| 20260902204005 | 76 | 159 | 2.0 | 4.0 | 0.00 | 0.00 | 0.00 | 44 | 1005.4 |
| 20260902203939 | 76 | 288 | 1.0 | 4.0 | 0.00 | 0.00 | 0.00 | 43 | 1005.4 |
| 20260902203919 | 76 | 332 | 1.0 | 4.0 | 0.00 | 0.00 | 0.00 | 42 | 1005.4 |
| 20260902203856 | 76 | 196 | 2.0 | 4.0 | 0.00 | 0.00 | 0.00 | 41 | 1005.4 |
| 20260902203821 | 76 | 192 | 2.0 | 4.0 | 0.00 | 0.00 | 0.00 | 41 | 1005.4 |
| 20260902203534 | 76 | 266 | 1.0 | 3.0 | 0.00 | 0.00 | 0.00 | 43 | 1005.4 |
| 20260902203513 | 76 | 314 | 1.0 | 4.0 | 0.00 | 0.00 | 0.00 | 42 | 1005.4 |
| 20260902202915 | 76 | 323 | 0.0 | 4.0 | 0.00 | 0.00 | 0.00 | 41 | 1005.5 |
| 20260902202853 | 76 | 300 | 1.0 | 5.0 | 0.00 | 0.00 | 0.00 | 43 | 1005.5 |
| 20260902202833 | 76 | 180 | 1.0 | 5.0 | 0.00 | 0.00 | 0.00 | 42 | 1005.5 |
| 20260902202456 | 76 | 126 | 2.0 | 5.0 | 0.00 | 0.00 | 0.00 | 42 | 1005.5 |
| 20260902202402 | 76 | 137 | 3.0 | 5.0 | 0.00 | 0.00 | 0.00 | 42 | 1005.5 |
| 20260902202344 | 76 | 241 | 3.0 | 5.0 | 0.00 | 0.00 | 0.00 | 42 | 1005.5 |
| 20260902202322 | 76 | 261 | 2.0 | 5.0 | 0.00 | 0.00 | 0.00 | 42 | 1005.5 |
| 20260902202301 | 76 | 263 | 2.0 | 5.0 | 0.00 | 0.00 | 0.00 | 44 | 1005.6 |
| 20260902202227 | 76 | 196 | 2.0 | 5.0 | 0.00 | 0.00 | 0.00 | 44 | 1005.6 |
| 20260902202203 | 76 | 195 | 2.0 | 5.0 | 0.00 | 0.00 | 0.00 | 42 | 1005.6 |
| 20260902202142 | 76 | 113 | 2.0 | 5.0 | 0.00 | 0.00 | 0.00 | 43 | 1005.6 |
| 20260902201849 | 75 | 187 | 3.0 | 5.0 | 0.00 | 0.00 | 0.00 | 42 | 1005.6 |
| 20260902201241 | 75 | 174 | 1.0 | 2.0 | 0.00 | 0.00 | 0.00 | 43 | 1005.7 |
| 20260902201139 | 75 | 352 | 1.0 | 3.0 | 0.00 | 0.00 | 0.00 | 44 | 1005.7 |
| 20260902201050 | 75 | 338 | 1.0 | 3.0 | 0.00 | 0.00 | 0.00 | 44 | 1005.7 |
| 20260902200937 | 75 | 338 | 1.0 | 3.0 | 0.00 | 0.00 | 0.00 | 43 | 1005.7 |
| 20260902200836 | 75 | 352 | 2.0 | 3.0 | 0.00 | 0.00 | 0.00 | 42 | 1005.7 |
| 20260902200738 | 75 | 352 | 1.0 | 6.0 | 0.00 | 0.00 | 0.00 | 43 | 1005.7 |
| 20260902200635 | 75 | 340 | 1.0 | 6.0 | 0.00 | 0.00 | 0.00 | 43 | 1005.7 |
| 20260902200548 | 75 | 265 | 1.0 | 7.0 | 0.00 | 0.00 | 0.00 | 42 | 1005.8 |
| 20260902200435 | 75 | 263 | 2.0 | 7.0 | 0.00 | 0.00 | 0.00 | 42 | 1005.8 |
| 20260902200333 | 75 | 268 | 2.0 | 9.0 | 0.00 | 0.00 | 0.00 | 42 | 1005.8 |
| 20260902200234 | 76 | 273 | 1.0 | 9.0 | 0.00 | 0.00 | 0.00 | 42 | 1005.8 |
| 20260902200132 | 76 | 232 | 1.0 | 9.0 | 0.00 | 0.00 | 0.00 | 43 | 1005.9 |
| 20260902200044 | 76 | 227 | 2.0 | 9.0 | 0.00 | 0.00 | 0.00 | 42 | 1005.9 |
| 20260902195929 | 76 | 263 | 2.0 | 9.0 | 0.00 | 0.00 | 0.00 | 43 | 1005.9 |
| 20260902195831 | 76 | 257 | 3.0 | 9.0 | 0.00 | 0.00 | 0.00 | 42 | 1005.9 |
| 20260902195730 | 76 | 239 | 3.0 | 9.0 | 0.00 | 0.00 | 0.00 | 43 | 1005.9 |
| 20260902195631 | 76 | 251 | 3.0 | 9.0 | 0.00 | 0.00 | 0.00 | 43 | 1005.9 |
| 20260902195543 | 76 | 153 | 3.0 | 9.0 | 0.00 | 0.00 | 0.00 | 43 | 1005.9 |
| 20260902195445 | 76 | 280 | 1.0 | 9.0 | 0.00 | 0.00 | 0.00 | 42 | 1005.9 |
| 20260902195419 | 76 | 337 | 2.0 | 4.0 | 0.00 | 0.00 | 0.00 | 43 | 1005.9 |
| 20260902195400 | 76 | 260 | 2.0 | 4.0 | 0.00 | 0.00 | 0.00 | 42 | 1005.9 |
| 20260902195042 | 76 | 283 | 1.0 | 4.0 | 0.00 | 0.00 | 0.00 | 42 | 1005.9 |
| 20260902194930 | 76 | 161 | 2.0 | 4.0 | 0.00 | 0.00 | 0.00 | 43 | 1005.9 |
| 20260902194831 | 76 | 208 | 1.0 | 4.0 | 0.00 | 0.00 | 0.00 | 43 | 1006.0 |
| 20260902194729 | 76 | 304 | 1.0 | 4.0 | 0.00 | 0.00 | 0.00 | 43 | 1006.0 |
| 20260902194630 | 76 | 161 | 1.0 | 4.0 | 0.00 | 0.00 | 0.00 | 44 | 1006.0 |
| 20260902194537 | 76 | 338 | 1.0 | 7.0 | 0.00 | 0.00 | 0.00 | 44 | 1006.1 |
| 20260902194429 | 75 | 173 | 0.0 | 8.0 | 0.00 | 0.00 | 0.00 | 43 | 1006.1 |
| 20260902194329 | 75 | 198 | 0.0 | 8.0 | 0.00 | 0.00 | 0.00 | 42 | 1006.1 |
| 20260902194228 | 75 | 123 | 1.0 | 8.0 | 0.00 | 0.00 | 0.00 | 43 | 1006.1 |
| 20260902194126 | 75 | 81 | 1.0 | 9.0 | 0.00 | 0.00 | 0.00 | 44 | 1006.1 |
| 20260902194033 | 75 | 51 | 1.0 | 9.0 | 0.00 | 0.00 | 0.00 | 43 | 1006.1 |
| 20260902193924 | 75 | 81 | 2.0 | 9.0 | 0.00 | 0.00 | 0.00 | 43 | 1006.1 |
| 20260902193847 | 75 | 279 | 2.0 | 9.0 | 0.00 | 0.00 | 0.00 | 43 | 1006.2 |
| 20260902193825 | 75 | 253 | 4.0 | 9.0 | 0.00 | 0.00 | 0.00 | 44 | 1006.2 |
| 20260902193802 | 75 | 323 | 4.0 | 9.0 | 0.00 | 0.00 | 0.00 | 43 | 1006.2 |
| 20260902193444 | 76 | 251 | 4.0 | 9.0 | 0.00 | 0.00 | 0.00 | 42 | 1006.3 |
| 20260902193420 | 76 | 283 | 5.0 | 9.0 | 0.00 | 0.00 | 0.00 | 45 | 1006.4 |
| 20260902193400 | 76 | 277 | 4.0 | 9.0 | 0.00 | 0.00 | 0.00 | 43 | 1006.4 |
| 20260902193108 | 76 | 269 | 2.0 | 8.0 | 0.00 | 0.00 | 0.00 | 43 | 1006.5 |
| 20260902193033 | 76 | 215 | 2.0 | 9.0 | 0.00 | 0.00 | 0.00 | 45 | 1006.5 |
| 20260902193013 | 76 | 269 | 2.0 | 9.0 | 0.00 | 0.00 | 0.00 | 43 | 1006.5 |
| 20260902192719 | 76 | 271 | 3.0 | 9.0 | 0.00 | 0.00 | 0.00 | 42 | 1006.6 |
| 20260902192658 | 76 | 294 | 3.0 | 9.0 | 0.00 | 0.00 | 0.00 | 44 | 1006.6 |
| 20260902192315 | 76 | 158 | 3.0 | 9.0 | 0.00 | 0.00 | 0.00 | 44 | 1006.6 |
| 20260902192241 | 76 | 187 | 3.0 | 9.0 | 0.00 | 0.00 | 0.00 | 43 | 1006.5 |
| 20260902192217 | 76 | 169 | 4.0 | 9.0 | 0.00 | 0.00 | 0.00 | 44 | 1006.6 |
| 20260902192159 | 75 | 190 | 4.0 | 9.0 | 0.00 | 0.00 | 0.00 | 43 | 1006.6 |
| 20260902191813 | 75 | 190 | 2.0 | 9.0 | 0.00 | 0.00 | 0.00 | 43 | 1006.6 |
| 20260902191738 | 75 | 211 | 2.0 | 10.0 | 0.00 | 0.00 | 0.00 | 44 | 1006.7 |
| 20260902191715 | 75 | 261 | 2.0 | 10.0 | 0.00 | 0.00 | 0.00 | 44 | 1006.6 |
| 20260902191655 | 75 | 101 | 2.0 | 10.0 | 0.00 | 0.00 | 0.00 | 42 | 1006.6 |
| 20260902191333 | 75 | 126 | 4.0 | 10.0 | 0.00 | 0.00 | 0.00 | 43 | 1006.7 |
| 20260902191311 | 75 | 100 | 5.0 | 10.0 | 0.00 | 0.00 | 0.00 | 43 | 1006.8 |
| 20260902191249 | 75 | 234 | 4.0 | 10.0 | 0.00 | 0.00 | 0.00 | 44 | 1006.8 |
| 20260902190944 | 75 | 120 | 5.0 | 10.0 | 0.00 | 0.00 | 0.00 | 45 | 1006.8 |
| 20260902190925 | 75 | 281 | 3.0 | 10.0 | 0.00 | 0.00 | 0.00 | 44 | 1006.7 |
| 20260902190904 | 75 | 167 | 3.0 | 8.0 | 0.00 | 0.00 | 0.00 | 46 | 1006.8 |
| 20260902190609 | 75 | 228 | 3.0 | 9.0 | 0.00 | 0.00 | 0.00 | 44 | 1006.8 |
| 20260902190534 | 75 | 186 | 2.0 | 9.0 | 0.00 | 0.00 | 0.00 | 43 | 1006.8 |
| 20260902190203 | 75 | 278 | 2.0 | 10.0 | 0.00 | 0.00 | 0.00 | 44 | 1006.8 |
| 20260902190101 | 74 | 270 | 3.0 | 10.0 | 0.00 | 0.00 | 0.00 | 45 | 1006.9 |
| 20260902190009 | 74 | 240 | 4.0 | 10.0 | 0.00 | 0.00 | 0.00 | 45 | 1006.8 |
| 20260902185904 | 74 | 156 | 4.0 | 10.0 | 0.00 | 0.00 | 0.00 | 45 | 1006.8 |
| 20260902185822 | 74 | 121 | 4.0 | 10.0 | 0.00 | 0.00 | 0.00 | 43 | 1006.8 |
| 20260902185801 | 74 | 171 | 3.0 | 10.0 | 0.00 | 0.00 | 0.00 | 44 | 1006.9 |
| 20260902185737 | 74 | 163 | 3.0 | 10.0 | 0.00 | 0.00 | 0.00 | 45 | 1006.9 |
| 20260902185714 | 74 | 192 | 4.0 | 12.0 | 0.00 | 0.00 | 0.00 | 44 | 1006.9 |
| 20260902185640 | 74 | 217 | 4.0 | 13.0 | 0.00 | 0.00 | 0.00 | 44 | 1006.8 |
| 20260902185349 | 74 | 271 | 4.0 | 13.0 | 0.00 | 0.00 | 0.00 | 44 | 1006.8 |
| 20260902185327 | 74 | 222 | 4.0 | 13.0 | 0.00 | 0.00 | 0.00 | 44 | 1006.8 |
| 20260902185307 | 74 | 231 | 2.0 | 13.0 | 0.00 | 0.00 | 0.00 | 44 | 1006.8 |
| 20260902185230 | 74 | 215 | 2.0 | 13.0 | 0.00 | 0.00 | 0.00 | 45 | 1006.9 |
| 20260902185210 | 74 | 267 | 5.0 | 13.0 | 0.00 | 0.00 | 0.00 | 46 | 1006.9 |
| 20260902184920 | 74 | 160 | 6.0 | 13.0 | 0.00 | 0.00 | 0.00 | 45 | 1006.9 |
| 20260902184856 | 74 | 150 | 4.0 | 13.0 | 0.00 | 0.00 | 0.00 | 44 | 1006.9 |
| 20260902184824 | 74 | 150 | 3.0 | 11.0 | 0.00 | 0.00 | 0.00 | 45 | 1006.9 |
| 20260902184304 | 74 | 153 | 4.0 | 10.0 | 0.00 | 0.00 | 0.00 | 47 | 1007.0 |
| 20260902184244 | 74 | 171 | 4.0 | 10.0 | 0.00 | 0.00 | 0.00 | 47 | 1007.0 |
| 20260902183938 | 74 | 211 | 4.0 | 10.0 | 0.00 | 0.00 | 0.00 | 47 | 1006.9 |
| 20260902183643 | 74 | 183 | 4.0 | 10.0 | 0.00 | 0.00 | 0.00 | 47 | 1006.9 |
| 20260902183619 | 73 | 169 | 4.0 | 10.0 | 0.00 | 0.00 | 0.00 | 46 | 1007.0 |
| 20260902183545 | 73 | 224 | 4.0 | 10.0 | 0.00 | 0.00 | 0.00 | 46 | 1007.0 |
| 20260902183253 | 73 | 180 | 3.0 | 10.0 | 0.00 | 0.00 | 0.00 | 46 | 1007.0 |
| 20260902183231 | 73 | 173 | 4.0 | 10.0 | 0.00 | 0.00 | 0.00 | 46 | 1007.0 |
| 20260902182900 | 73 | 250 | 4.0 | 9.0 | 0.00 | 0.00 | 0.00 | 46 | 1007.0 |
| 20260902182802 | 73 | 166 | 4.0 | 9.0 | 0.00 | 0.00 | 0.00 | 46 | 1007.1 |
| 20260902182702 | 73 | 155 | 4.0 | 9.0 | 0.00 | 0.00 | 0.00 | 45 | 1007.1 |
| 20260902182629 | 73 | 198 | 4.0 | 9.0 | 0.00 | 0.00 | 0.00 | 47 | 1007.0 |
| 20260902182604 | 73 | 154 | 3.0 | 8.0 | 0.00 | 0.00 | 0.00 | 47 | 1007.1 |
| 20260902182532 | 72 | 165 | 4.0 | 8.0 | 0.00 | 0.00 | 0.00 | 48 | 1007.1 |
| 20260902182512 | 72 | 171 | 4.0 | 10.0 | 0.00 | 0.00 | 0.00 | 47 | 1007.1 |
| 20260902182219 | 72 | 180 | 3.0 | 10.0 | 0.00 | 0.00 | 0.00 | 48 | 1007.1 |
| 20260902182159 | 72 | 149 | 3.0 | 10.0 | 0.00 | 0.00 | 0.00 | 48 | 1007.1 |
| 20260902182124 | 72 | 261 | 4.0 | 10.0 | 0.00 | 0.00 | 0.00 | 48 | 1007.1 |
| 20260902182101 | 71 | 200 | 3.0 | 10.0 | 0.00 | 0.00 | 0.00 | 48 | 1007.1 |
| 20260902181502 | 71 | 266 | 4.0 | 10.0 | 0.00 | 0.00 | 0.00 | 48 | 1007.1 |
| 20260902181404 | 71 | 99 | 4.0 | 10.0 | 0.00 | 0.00 | 0.00 | 49 | 1007.1 |
| 20260902181304 | 71 | 180 | 3.0 | 7.0 | 0.00 | 0.00 | 0.00 | 49 | 1007.2 |
| 20260902181204 | 71 | 150 | 1.0 | 7.0 | 0.00 | 0.00 | 0.00 | 48 | 1007.1 |
| 20260902181102 | 71 | 221 | 1.0 | 7.0 | 0.00 | 0.00 | 0.00 | 49 | 1007.1 |
| 20260902181002 | 70 | 203 | 1.0 | 7.0 | 0.00 | 0.00 | 0.00 | 50 | 1007.1 |
| 20260902180902 | 70 | 324 | 1.0 | 7.0 | 0.00 | 0.00 | 0.00 | 50 | 1007.1 |
| 20260902180803 | 70 | 233 | 2.0 | 7.0 | 0.00 | 0.00 | 0.00 | 50 | 1007.2 |
| 20260902180705 | 70 | 313 | 2.0 | 7.0 | 0.00 | 0.00 | 0.00 | 50 | 1007.1 |
| 20260902180602 | 70 | 153 | 2.0 | 7.0 | 0.00 | 0.00 | 0.00 | 50 | 1007.2 |
| 20260902180501 | 70 | 161 | 2.0 | 7.0 | 0.00 | 0.00 | 0.00 | 51 | 1007.2 |
| 20260902180416 | 70 | 215 | 2.0 | 7.0 | 0.00 | 0.00 | 0.00 | 51 | 1007.2 |
| 20260902180352 | 70 | 185 | 2.0 | 7.0 | 0.00 | 0.00 | 0.00 | 53 | 1007.2 |
| 20260902180333 | 70 | 172 | 2.0 | 9.0 | 0.00 | 0.00 | 0.00 | 53 | 1007.2 |
| 20260902180006 | 70 | 213 | 1.0 | 9.0 | 0.00 | 0.00 | 0.00 | 52 | 1007.2 |
| 20260902175902 | 69 | 198 | 3.0 | 9.0 | 0.00 | 0.00 | 0.00 | 53 | 1007.2 |
| 20260902175804 | 69 | 202 | 4.0 | 11.0 | 0.00 | 0.00 | 0.00 | 52 | 1007.2 |
| 20260902175732 | 69 | 177 | 4.0 | 11.0 | 0.00 | 0.00 | 0.00 | 52 | 1007.3 |
| 20260902175710 | 69 | 160 | 4.0 | 11.0 | 0.00 | 0.00 | 0.00 | 52 | 1007.3 |
| 20260902175647 | 69 | 171 | 5.0 | 11.0 | 0.00 | 0.00 | 0.00 | 52 | 1007.3 |
| 20260902175613 | 69 | 152 | 6.0 | 11.0 | 0.00 | 0.00 | 0.00 | 52 | 1007.4 |
| 20260902175552 | 69 | 163 | 4.0 | 11.0 | 0.00 | 0.00 | 0.00 | 52 | 1007.3 |
| 20260902175531 | 69 | 216 | 4.0 | 11.0 | 0.00 | 0.00 | 0.00 | 52 | 1007.4 |
| 20260902175511 | 69 | 172 | 6.0 | 11.0 | 0.00 | 0.00 | 0.00 | 52 | 1007.3 |
| 20260902175449 | 69 | 189 | 5.0 | 11.0 | 0.00 | 0.00 | 0.00 | 51 | 1007.3 |
| 20260902175412 | 69 | 152 | 5.0 | 11.0 | 0.00 | 0.00 | 0.00 | 52 | 1007.3 |
| 20260902175128 | 69 | 165 | 5.0 | 10.0 | 0.00 | 0.00 | 0.00 | 51 | 1007.4 |
| 20260902175106 | 69 | 168 | 4.0 | 10.0 | 0.00 | 0.00 | 0.00 | 52 | 1007.4 |
| 20260902175045 | 69 | 175 | 4.0 | 10.0 | 0.00 | 0.00 | 0.00 | 52 | 1007.4 |
| 20260902174742 | 69 | 172 | 3.0 | 9.0 | 0.00 | 0.00 | 0.00 | 52 | 1007.4 |
| 20260902174722 | 69 | 223 | 4.0 | 9.0 | 0.00 | 0.00 | 0.00 | 52 | 1007.5 |
| 20260902174701 | 69 | 190 | 4.0 | 9.0 | 0.00 | 0.00 | 0.00 | 52 | 1007.5 |
| 20260902173900 | 69 | 154 | 2.0 | 6.0 | 0.00 | 0.00 | 0.00 | 53 | 1007.4 |
| 20260902173606 | 69 | 167 | 2.0 | 11.0 | 0.00 | 0.00 | 0.00 | 52 | 1007.4 |
| 20260902173532 | 69 | 223 | 2.0 | 11.0 | 0.00 | 0.00 | 0.00 | 53 | 1007.4 |
| 20260902173201 | 69 | 192 | 3.0 | 11.0 | 0.00 | 0.00 | 0.00 | 52 | 1007.4 |
| 20260902173100 | 69 | 181 | 2.0 | 11.0 | 0.00 | 0.00 | 0.00 | 52 | 1007.4 |
| 20260902173032 | 69 | 190 | 2.0 | 11.0 | 0.00 | 0.00 | 0.00 | 52 | 1007.4 |
| 20260902172956 | 69 | 182 | 4.0 | 11.0 | 0.00 | 0.00 | 0.00 | 53 | 1007.4 |
| 20260902172938 | 69 | 148 | 6.0 | 11.0 | 0.00 | 0.00 | 0.00 | 52 | 1007.4 |
| 20260902172603 | 69 | 198 | 4.0 | 11.0 | 0.00 | 0.00 | 0.00 | 52 | 1007.4 |
| 20260902172501 | 69 | 208 | 2.0 | 11.0 | 0.00 | 0.00 | 0.00 | 53 | 1007.4 |
| 20260902172402 | 69 | 211 | 3.0 | 11.0 | 0.00 | 0.00 | 0.00 | 54 | 1007.4 |
| 20260902172337 | 68 | 182 | 4.0 | 11.0 | 0.00 | 0.00 | 0.00 | 53 | 1007.4 |
| 20260902172317 | 68 | 178 | 3.0 | 11.0 | 0.00 | 0.00 | 0.00 | 53 | 1007.4 |
| 20260902172256 | 68 | 178 | 3.0 | 11.0 | 0.00 | 0.00 | 0.00 | 53 | 1007.4 |
| 20260902172237 | 68 | 109 | 5.0 | 11.0 | 0.00 | 0.00 | 0.00 | 53 | 1007.5 |
| 20260902171933 | 68 | 178 | 3.0 | 11.0 | 0.00 | 0.00 | 0.00 | 53 | 1007.5 |
| 20260902171601 | 68 | 175 | 4.0 | 11.0 | 0.00 | 0.00 | 0.00 | 53 | 1007.5 |
| 20260902171501 | 68 | 273 | 3.0 | 12.0 | 0.00 | 0.00 | 0.00 | 53 | 1007.4 |
| 20260902171404 | 68 | 217 | 3.0 | 12.0 | 0.00 | 0.00 | 0.00 | 54 | 1007.3 |
| 20260902171302 | 68 | 234 | 3.0 | 12.0 | 0.00 | 0.00 | 0.00 | 53 | 1007.3 |
| 20260902171203 | 68 | 191 | 4.0 | 12.0 | 0.00 | 0.00 | 0.00 | 53 | 1007.3 |
| 20260902171107 | 68 | 180 | 6.0 | 13.0 | 0.00 | 0.00 | 0.00 | 53 | 1007.3 |
| 20260902171047 | 68 | 242 | 6.0 | 13.0 | 0.00 | 0.00 | 0.00 | 53 | 1007.3 |
| 20260902171009 | 68 | 171 | 3.0 | 13.0 | 0.00 | 0.00 | 0.00 | 53 | 1007.3 |
| 20260902170948 | 68 | 178 | 5.0 | 13.0 | 0.00 | 0.00 | 0.00 | 53 | 1007.3 |
| 20260902170927 | 68 | 192 | 5.0 | 13.0 | 0.00 | 0.00 | 0.00 | 54 | 1007.3 |
| 20260902170903 | 68 | 171 | 3.0 | 13.0 | 0.00 | 0.00 | 0.00 | 54 | 1007.3 |
| 20260902170842 | 68 | 189 | 4.0 | 13.0 | 0.00 | 0.00 | 0.00 | 54 | 1007.3 |
| 20260902170541 | 68 | 199 | 7.0 | 13.0 | 0.00 | 0.00 | 0.00 | 54 | 1007.3 |
| 20260902170246 | 68 | 202 | 5.0 | 10.0 | 0.00 | 0.00 | 0.00 | 54 | 1007.3 |
| 20260902165941 | 68 | 150 | 4.0 | 10.0 | 0.00 | 0.00 | 0.00 | 54 | 1007.3 |
| 20260902165918 | 68 | 206 | 4.0 | 10.0 | 0.00 | 0.00 | 0.00 | 54 | 1007.3 |
| 20260902165857 | 68 | 202 | 4.0 | 10.0 | 0.00 | 0.00 | 0.00 | 54 | 1007.3 |
| 20260902165835 | 68 | 189 | 4.0 | 10.0 | 0.00 | 0.00 | 0.00 | 55 | 1007.3 |
| 20260902165546 | 67 | 199 | 2.0 | 10.0 | 0.00 | 0.00 | 0.00 | 56 | 1007.3 |
| 20260902165230 | 67 | 267 | 5.0 | 10.0 | 0.00 | 0.00 | 0.00 | 56 | 1007.3 |
| 20260902165206 | 67 | 202 | 3.0 | 10.0 | 0.00 | 0.00 | 0.00 | 56 | 1007.2 |
| 20260902165146 | 67 | 293 | 2.0 | 8.0 | 0.00 | 0.00 | 0.00 | 57 | 1007.3 |
| 20260902165122 | 67 | 296 | 2.0 | 8.0 | 0.00 | 0.00 | 0.00 | 57 | 1007.3 |
| 20260902165049 | 67 | 172 | 2.0 | 8.0 | 0.00 | 0.00 | 0.00 | 58 | 1007.3 |
| 20260902165027 | 67 | 165 | 2.0 | 8.0 | 0.00 | 0.00 | 0.00 | 58 | 1007.3 |
| 20260902165003 | 67 | 203 | 2.0 | 8.0 | 0.00 | 0.00 | 0.00 | 58 | 1007.3 |
| 20260902164942 | 67 | 238 | 2.0 | 8.0 | 0.00 | 0.00 | 0.00 | 58 | 1007.3 |
| 20260902164922 | 67 | 244 | 3.0 | 8.0 | 0.00 | 0.00 | 0.00 | 58 | 1007.3 |
| 20260902164348 | 66 | 223 | 2.0 | 8.0 | 0.00 | 0.00 | 0.00 | 58 | 1007.3 |
| 20260902164325 | 66 | 161 | 2.0 | 6.0 | 0.00 | 0.00 | 0.00 | 59 | 1007.3 |
| 20260902164304 | 66 | 134 | 2.0 | 6.0 | 0.00 | 0.00 | 0.00 | 59 | 1007.4 |
| 20260902163958 | 66 | 176 | 2.0 | 8.0 | 0.00 | 0.00 | 0.00 | 60 | 1007.4 |
| 20260902163408 | 66 | 205 | 2.0 | 8.0 | 0.00 | 0.00 | 0.00 | 60 | 1007.4 |
| 20260902163300 | 66 | 200 | 2.0 | 8.0 | 0.00 | 0.00 | 0.00 | 60 | 1007.3 |
| 20260902163200 | 65 | 229 | 1.0 | 8.0 | 0.00 | 0.00 | 0.00 | 61 | 1007.4 |
| 20260902163100 | 65 | 223 | 1.0 | 8.0 | 0.00 | 0.00 | 0.00 | 61 | 1007.4 |
| 20260902163002 | 65 | 236 | 3.0 | 8.0 | 0.00 | 0.00 | 0.00 | 61 | 1007.4 |
| 20260902162903 | 65 | 236 | 3.0 | 8.0 | 0.00 | 0.00 | 0.00 | 61 | 1007.4 |
| 20260902162815 | 65 | 174 | 3.0 | 8.0 | 0.00 | 0.00 | 0.00 | 61 | 1007.4 |
| 20260902162754 | 65 | 172 | 2.0 | 6.0 | 0.00 | 0.00 | 0.00 | 61 | 1007.4 |
| 20260902162731 | 65 | 185 | 1.0 | 6.0 | 0.00 | 0.00 | 0.00 | 62 | 1007.4 |
| 20260902162422 | 65 | 169 | 3.0 | 6.0 | 0.00 | 0.00 | 0.00 | 61 | 1007.4 |
| 20260902162348 | 65 | 168 | 3.0 | 6.0 | 0.00 | 0.00 | 0.00 | 62 | 1007.4 |
| 20260902162329 | 65 | 145 | 3.0 | 6.0 | 0.00 | 0.00 | 0.00 | 62 | 1007.4 |
| 20260902161957 | 65 | 159 | 1.0 | 6.0 | 0.00 | 0.00 | 0.00 | 62 | 1007.4 |
| 20260902161857 | 65 | 123 | 2.0 | 4.0 | 0.00 | 0.00 | 0.00 | 63 | 1007.4 |
| 20260902161756 | 64 | 229 | 1.0 | 4.0 | 0.00 | 0.00 | 0.00 | 63 | 1007.4 |
| 20260902161655 | 64 | 186 | 1.0 | 8.0 | 0.00 | 0.00 | 0.00 | 63 | 1007.4 |
| 20260902161554 | 64 | 181 | 2.0 | 9.0 | 0.00 | 0.00 | 0.00 | 64 | 1007.5 |
| 20260902161455 | 64 | 161 | 2.0 | 9.0 | 0.00 | 0.00 | 0.00 | 63 | 1007.5 |
| 20260902161354 | 64 | 163 | 1.0 | 9.0 | 0.00 | 0.00 | 0.00 | 64 | 1007.5 |
| 20260902161248 | 64 | 199 | 1.0 | 11.0 | 0.00 | 0.00 | 0.00 | 64 | 1007.5 |
| 20260902161147 | 64 | 130 | 2.0 | 11.0 | 0.00 | 0.00 | 0.00 | 64 | 1007.5 |
| 20260902161047 | 64 | 180 | 3.0 | 13.0 | 0.00 | 0.00 | 0.00 | 64 | 1007.5 |
| 20260902160946 | 64 | 158 | 3.0 | 13.0 | 0.00 | 0.00 | 0.00 | 64 | 1007.5 |
| 20260902160848 | 64 | 185 | 6.0 | 13.0 | 0.00 | 0.00 | 0.00 | 64 | 1007.4 |
| 20260902160747 | 64 | 180 | 5.0 | 13.0 | 0.00 | 0.00 | 0.00 | 64 | 1007.5 |
| 20260902160644 | 64 | 157 | 3.0 | 13.0 | 0.00 | 0.00 | 0.00 | 64 | 1007.5 |
| 20260902160544 | 64 | 190 | 5.0 | 13.0 | 0.00 | 0.00 | 0.00 | 65 | 1007.6 |
| 20260902160444 | 64 | 167 | 6.0 | 13.0 | 0.00 | 0.00 | 0.00 | 65 | 1007.5 |
| 20260902160347 | 64 | 198 | 6.0 | 13.0 | 0.00 | 0.00 | 0.00 | 65 | 1007.5 |
| 20260902160242 | 63 | 157 | 7.0 | 13.0 | 0.00 | 0.00 | 0.00 | 65 | 1007.5 |
| 20260902160141 | 63 | 161 | 6.0 | 13.0 | 0.00 | 0.00 | 0.00 | 65 | 1007.6 |
| 20260902160041 | 63 | 146 | 5.0 | 11.0 | 0.00 | 0.00 | 0.00 | 66 | 1007.5 |
| 20260902155940 | 63 | 185 | 4.0 | 11.0 | 0.00 | 0.00 | 0.00 | 66 | 1007.5 |
| 20260902155906 | 63 | 157 | 4.0 | 11.0 | 0.00 | 0.00 | 0.00 | 66 | 1007.5 |
| 20260902155831 | 63 | 138 | 6.0 | 11.0 | 0.00 | 0.00 | 0.00 | 66 | 1007.5 |
| 20260902155807 | 63 | 196 | 7.0 | 11.0 | 0.00 | 0.00 | 0.00 | 66 | 1007.5 |
| 20260902155439 | 63 | 148 | 4.0 | 10.0 | 0.00 | 0.00 | 0.00 | 66 | 1007.5 |
| 20260902155343 | 63 | 200 | 6.0 | 10.0 | 0.00 | 0.00 | 0.00 | 66 | 1007.5 |
| 20260902155229 | 63 | 172 | 6.0 | 10.0 | 0.00 | 0.00 | 0.00 | 66 | 1007.5 |
| 20260902155130 | 63 | 167 | 5.0 | 9.0 | 0.00 | 0.00 | 0.00 | 66 | 1007.6 |
| 20260902155028 | 63 | 152 | 4.0 | 9.0 | 0.00 | 0.00 | 0.00 | 66 | 1007.5 |
| 20260902154931 | 63 | 179 | 5.0 | 9.0 | 0.00 | 0.00 | 0.00 | 66 | 1007.5 |
| 20260902154836 | 63 | 178 | 5.0 | 9.0 | 0.00 | 0.00 | 0.00 | 66 | 1007.5 |
| 20260902154730 | 63 | 178 | 5.0 | 9.0 | 0.00 | 0.00 | 0.00 | 66 | 1007.5 |
| 20260902154649 | 63 | 171 | 5.0 | 9.0 | 0.00 | 0.00 | 0.00 | 66 | 1007.5 |
| 20260902154626 | 63 | 160 | 3.0 | 9.0 | 0.00 | 0.00 | 0.00 | 66 | 1007.6 |
| 20260902154605 | 63 | 213 | 4.0 | 9.0 | 0.00 | 0.00 | 0.00 | 66 | 1007.5 |
| 20260902154229 | 63 | 130 | 5.0 | 9.0 | 0.00 | 0.00 | 0.00 | 66 | 1007.6 |
| 20260902154132 | 63 | 183 | 5.0 | 9.0 | 0.00 | 0.00 | 0.00 | 66 | 1007.5 |
| 20260902154030 | 63 | 175 | 3.0 | 9.0 | 0.00 | 0.00 | 0.00 | 66 | 1007.4 |
| 20260902153942 | 63 | 216 | 4.0 | 8.0 | 0.00 | 0.00 | 0.00 | 66 | 1007.4 |
| 20260902153919 | 63 | 252 | 4.0 | 8.0 | 0.00 | 0.00 | 0.00 | 66 | 1007.5 |
| 20260902153846 | 63 | 153 | 3.0 | 7.0 | 0.00 | 0.00 | 0.00 | 66 | 1007.5 |
| 20260902153825 | 63 | 160 | 2.0 | 7.0 | 0.00 | 0.00 | 0.00 | 66 | 1007.5 |
| 20260902153532 | 63 | 238 | 3.0 | 8.0 | 0.00 | 0.00 | 0.00 | 67 | 1007.6 |
| 20260902153511 | 63 | 215 | 2.0 | 8.0 | 0.00 | 0.00 | 0.00 | 66 | 1007.6 |
| 20260902153435 | 63 | 173 | 1.0 | 8.0 | 0.00 | 0.00 | 0.00 | 67 | 1007.6 |
| 20260902153413 | 63 | 96 | 2.0 | 8.0 | 0.00 | 0.00 | 0.00 | 67 | 1007.6 |
| 20260902152824 | 63 | 254 | 2.0 | 8.0 | 0.00 | 0.00 | 0.00 | 67 | 1007.6 |
| 20260902152712 | 63 | 295 | 2.0 | 10.0 | 0.00 | 0.00 | 0.00 | 67 | 1007.6 |
| 20260902152611 | 63 | 274 | 3.0 | 10.0 | 0.00 | 0.00 | 0.00 | 67 | 1007.7 |
| 20260902152512 | 63 | 186 | 3.0 | 10.0 | 0.00 | 0.00 | 0.00 | 67 | 1007.8 |
| 20260902152410 | 62 | 192 | 3.0 | 10.0 | 0.00 | 0.00 | 0.00 | 67 | 1007.7 |
| 20260902152321 | 63 | 143 | 4.0 | 11.0 | 0.00 | 0.00 | 0.00 | 67 | 1007.7 |
| 20260902152209 | 63 | 219 | 3.0 | 11.0 | 0.00 | 0.00 | 0.00 | 67 | 1007.7 |
| 20260902152108 | 63 | 325 | 3.0 | 11.0 | 0.00 | 0.00 | 0.00 | 67 | 1007.7 |
| 20260902152033 | 62 | 163 | 4.0 | 11.0 | 0.00 | 0.00 | 0.00 | 67 | 1007.7 |
| 20260902152010 | 62 | 212 | 5.0 | 11.0 | 0.00 | 0.00 | 0.00 | 67 | 1007.7 |
| 20260902151949 | 62 | 165 | 4.0 | 11.0 | 0.00 | 0.00 | 0.00 | 68 | 1007.8 |
| 20260902151605 | 62 | 172 | 3.0 | 11.0 | 0.00 | 0.00 | 0.00 | 68 | 1007.7 |
| 20260902151504 | 62 | 209 | 4.0 | 11.0 | 0.00 | 0.00 | 0.00 | 68 | 1007.8 |
| 20260902151401 | 62 | 162 | 2.0 | 11.0 | 0.00 | 0.00 | 0.00 | 68 | 1007.8 |
| 20260902151315 | 62 | 261 | 2.0 | 6.0 | 0.00 | 0.00 | 0.00 | 68 | 1007.8 |
| 20260902151202 | 62 | 256 | 2.0 | 5.0 | 0.00 | 0.00 | 0.00 | 69 | 1007.8 |
| 20260902151102 | 62 | 200 | 1.0 | 5.0 | 0.00 | 0.00 | 0.00 | 69 | 1007.8 |
| 20260902151027 | 62 | 161 | 0.0 | 4.0 | 0.00 | 0.00 | 0.00 | 69 | 1007.9 |
| 20260902151003 | 62 | 277 | 0.0 | 2.0 | 0.00 | 0.00 | 0.00 | 70 | 1007.8 |
| 20260902150931 | 62 | 277 | 0.0 | 4.0 | 0.00 | 0.00 | 0.00 | 70 | 1007.8 |
| 20260902150910 | 61 | 277 | 0.0 | 4.0 | 0.00 | 0.00 | 0.00 | 70 | 1007.9 |
| 20260902150622 | 61 | 277 | 0.0 | 4.0 | 0.00 | 0.00 | 0.00 | 70 | 1007.9 |
| 20260902150252 | 61 | 277 | 1.0 | 7.0 | 0.00 | 0.00 | 0.00 | 70 | 1007.8 |
| 20260902150153 | 61 | 223 | 1.0 | 7.0 | 0.00 | 0.00 | 0.00 | 70 | 1007.9 |
| 20260902150047 | 61 | 317 | 2.0 | 7.0 | 0.00 | 0.00 | 0.00 | 70 | 1007.8 |
| 20260902145946 | 61 | 279 | 2.0 | 7.0 | 0.00 | 0.00 | 0.00 | 70 | 1007.8 |
| 20260902145912 | 61 | 288 | 2.0 | 7.0 | 0.00 | 0.00 | 0.00 | 70 | 1007.8 |
| 20260902145836 | 61 | 315 | 2.0 | 8.0 | 0.00 | 0.00 | 0.00 | 70 | 1007.9 |
| 20260902145814 | 61 | 263 | 2.0 | 9.0 | 0.00 | 0.00 | 0.00 | 70 | 1007.8 |
| 20260902145442 | 61 | 323 | 3.0 | 9.0 | 0.00 | 0.00 | 0.00 | 70 | 1007.8 |
| 20260902145341 | 61 | 267 | 3.0 | 9.0 | 0.00 | 0.00 | 0.00 | 70 | 1007.8 |
| 20260902145252 | 61 | 288 | 3.0 | 10.0 | 0.00 | 0.00 | 0.00 | 70 | 1007.9 |
| 20260902145233 | 61 | 292 | 2.0 | 10.0 | 0.00 | 0.00 | 0.00 | 70 | 1007.9 |
| 20260902145211 | 61 | 290 | 4.0 | 10.0 | 0.00 | 0.00 | 0.00 | 70 | 1007.8 |
| 20260902144839 | 61 | 302 | 4.0 | 10.0 | 0.00 | 0.00 | 0.00 | 70 | 1007.8 |
| 20260902144739 | 61 | 264 | 3.0 | 10.0 | 0.00 | 0.00 | 0.00 | 70 | 1007.8 |
| 20260902144640 | 60 | 229 | 2.0 | 10.0 | 0.00 | 0.00 | 0.00 | 70 | 1007.8 |
| 20260902144538 | 60 | 261 | 3.0 | 10.0 | 0.00 | 0.00 | 0.00 | 70 | 1007.8 |
| 20260902144437 | 60 | 205 | 2.0 | 10.0 | 0.00 | 0.00 | 0.00 | 70 | 1007.8 |
| 20260902144336 | 60 | 271 | 1.0 | 10.0 | 0.00 | 0.00 | 0.00 | 71 | 1007.8 |
| 20260902144237 | 60 | 204 | 2.0 | 8.0 | 0.00 | 0.00 | 0.00 | 71 | 1007.8 |
| 20260902144147 | 60 | 221 | 4.0 | 8.0 | 0.00 | 0.00 | 0.00 | 71 | 1007.7 |
| 20260902144124 | 60 | 197 | 3.0 | 8.0 | 0.00 | 0.00 | 0.00 | 71 | 1007.7 |
| 20260902144104 | 60 | 259 | 2.0 | 9.0 | 0.00 | 0.00 | 0.00 | 71 | 1007.7 |
| 20260902143733 | 60 | 217 | 3.0 | 9.0 | 0.00 | 0.00 | 0.00 | 71 | 1007.7 |
| 20260902143642 | 60 | 274 | 2.0 | 10.0 | 0.00 | 0.00 | 0.00 | 71 | 1007.7 |
| 20260902143620 | 60 | 277 | 3.0 | 12.0 | 0.00 | 0.00 | 0.00 | 71 | 1007.8 |
| 20260902143558 | 60 | 265 | 4.0 | 12.0 | 0.00 | 0.00 | 0.00 | 71 | 1007.8 |
| 20260902143229 | 60 | 311 | 3.0 | 12.0 | 0.00 | 0.00 | 0.00 | 71 | 1007.7 |
| 20260902143128 | 60 | 274 | 3.0 | 12.0 | 0.00 | 0.00 | 0.00 | 71 | 1007.7 |
| 20260902143029 | 60 | 329 | 3.0 | 12.0 | 0.00 | 0.00 | 0.00 | 71 | 1007.7 |
| 20260902142931 | 60 | 344 | 2.0 | 12.0 | 0.00 | 0.00 | 0.00 | 71 | 1007.7 |
| 20260902142830 | 60 | 273 | 3.0 | 12.0 | 0.00 | 0.00 | 0.00 | 71 | 1007.6 |
| 20260902142744 | 60 | 198 | 4.0 | 12.0 | 0.00 | 0.00 | 0.00 | 71 | 1007.7 |
| 20260902142721 | 60 | 183 | 4.0 | 11.0 | 0.00 | 0.00 | 0.00 | 71 | 1007.7 |
| 20260902142700 | 60 | 254 | 6.0 | 11.0 | 0.00 | 0.00 | 0.00 | 71 | 1007.6 |
| 20260902142329 | 60 | 337 | 4.0 | 11.0 | 0.00 | 0.00 | 0.00 | 70 | 1007.6 |
| 20260902142241 | 60 | 269 | 3.0 | 8.0 | 0.00 | 0.00 | 0.00 | 71 | 1007.6 |
| 20260902142219 | 60 | 279 | 3.0 | 8.0 | 0.00 | 0.00 | 0.00 | 70 | 1007.5 |
| 20260902142158 | 60 | 301 | 3.0 | 8.0 | 0.00 | 0.00 | 0.00 | 70 | 1007.5 |
| 20260902142136 | 60 | 323 | 2.0 | 11.0 | 0.00 | 0.00 | 0.00 | 70 | 1007.5 |
| 20260902142114 | 60 | 261 | 2.0 | 11.0 | 0.00 | 0.00 | 0.00 | 70 | 1007.5 |
| 20260902142041 | 60 | 291 | 2.0 | 11.0 | 0.00 | 0.00 | 0.00 | 70 | 1007.4 |
| 20260902142005 | 60 | 340 | 2.0 | 11.0 | 0.00 | 0.00 | 0.00 | 70 | 1007.4 |
| 20260902141944 | 60 | 292 | 4.0 | 11.0 | 0.00 | 0.00 | 0.00 | 70 | 1007.4 |
| 20260902141922 | 60 | 270 | 5.0 | 11.0 | 0.00 | 0.00 | 0.00 | 70 | 1007.3 |
| 20260902141902 | 60 | 260 | 6.0 | 11.0 | 0.00 | 0.00 | 0.00 | 70 | 1007.2 |
| 20260902141827 | 60 | 242 | 5.0 | 11.0 | 0.00 | 0.00 | 0.00 | 70 | 1007.2 |
| 20260902141310 | 60 | 263 | 3.0 | 11.0 | 0.00 | 0.00 | 0.00 | 70 | 1007.2 |
| 20260902141249 | 60 | 259 | 4.0 | 11.0 | 0.00 | 0.00 | 0.00 | 70 | 1007.2 |
| 20260902140715 | 60 | 290 | 5.0 | 12.0 | 0.00 | 0.00 | 0.00 | 70 | 1007.1 |
| 20260902140653 | 60 | 262 | 5.0 | 12.0 | 0.00 | 0.00 | 0.00 | 70 | 1007.1 |
| 20260902140631 | 60 | 340 | 5.0 | 12.0 | 0.00 | 0.00 | 0.00 | 70 | 1007.1 |
| 20260902140016 | 60 | 267 | 4.0 | 12.0 | 0.00 | 0.00 | 0.00 | 70 | 1007.0 |
| 20260902135915 | 60 | 260 | 5.0 | 12.0 | 0.00 | 0.00 | 0.00 | 70 | 1007.0 |
| 20260902135815 | 60 | 284 | 6.0 | 12.0 | 0.00 | 0.00 | 0.00 | 70 | 1007.0 |
| 20260902135714 | 60 | 165 | 5.0 | 11.0 | 0.00 | 0.00 | 0.00 | 70 | 1006.9 |
| 20260902135613 | 60 | 248 | 4.0 | 11.0 | 0.00 | 0.00 | 0.00 | 70 | 1007.0 |
| 20260902135513 | 60 | 265 | 5.0 | 11.0 | 0.00 | 0.00 | 0.00 | 70 | 1007.0 |
| 20260902135413 | 60 | 282 | 7.0 | 11.0 | 0.00 | 0.00 | 0.00 | 71 | 1006.9 |
| 20260902135313 | 60 | 227 | 7.0 | 11.0 | 0.00 | 0.00 | 0.00 | 71 | 1007.0 |
| 20260902135212 | 60 | 243 | 5.0 | 12.0 | 0.00 | 0.00 | 0.00 | 71 | 1007.0 |
| 20260902135113 | 60 | 257 | 3.0 | 12.0 | 0.00 | 0.00 | 0.00 | 71 | 1007.0 |
| 20260902135012 | 60 | 269 | 3.0 | 12.0 | 0.00 | 0.00 | 0.00 | 71 | 1007.1 |
| 20260902134912 | 60 | 256 | 4.0 | 12.0 | 0.00 | 0.00 | 0.00 | 71 | 1007.2 |
| 20260902134810 | 60 | 252 | 4.0 | 13.0 | 0.00 | 0.00 | 0.00 | 71 | 1007.1 |
| 20260902134709 | 60 | 260 | 3.0 | 13.0 | 0.00 | 0.00 | 0.00 | 71 | 1007.2 |
| 20260902134608 | 60 | 185 | 3.0 | 13.0 | 0.00 | 0.00 | 0.00 | 70 | 1007.2 |
| 20260902134508 | 60 | 242 | 3.0 | 13.0 | 0.00 | 0.00 | 0.00 | 70 | 1007.2 |
| 20260902134408 | 60 | 173 | 4.0 | 13.0 | 0.00 | 0.00 | 0.00 | 70 | 1007.2 |
| 20260902134307 | 60 | 207 | 6.0 | 13.0 | 0.00 | 0.00 | 0.00 | 70 | 1007.2 |
| 20260902134207 | 60 | 183 | 6.0 | 13.0 | 0.00 | 0.00 | 0.00 | 70 | 1007.1 |
| 20260902134143 | 60 | 160 | 6.0 | 13.0 | 0.00 | 0.00 | 0.00 | 70 | 1007.2 |
| 20260902134120 | 60 | 166 | 5.0 | 13.0 | 0.00 | 0.00 | 0.00 | 70 | 1007.1 |
| 20260902134100 | 60 | 176 | 5.0 | 11.0 | 0.00 | 0.00 | 0.00 | 70 | 1007.1 |
| 20260902134036 | 60 | 152 | 4.0 | 11.0 | 0.00 | 0.00 | 0.00 | 70 | 1007.0 |
| 20260902133731 | 60 | 255 | 3.0 | 11.0 | 0.00 | 0.00 | 0.00 | 70 | 1006.9 |
| 20260902133401 | 60 | 184 | 3.0 | 11.0 | 0.00 | 0.00 | 0.00 | 70 | 1007.0 |
| 20260902133301 | 60 | 222 | 4.0 | 11.0 | 0.00 | 0.00 | 0.00 | 70 | 1007.0 |
| 20260902133159 | 60 | 122 | 5.0 | 11.0 | 0.00 | 0.00 | 0.00 | 70 | 1007.0 |
| 20260902133059 | 60 | 252 | 3.0 | 11.0 | 0.00 | 0.00 | 0.00 | 70 | 1007.0 |
| 20260902132958 | 60 | 187 | 2.0 | 10.0 | 0.00 | 0.00 | 0.00 | 70 | 1007.1 |
| 20260902132857 | 60 | 188 | 3.0 | 10.0 | 0.00 | 0.00 | 0.00 | 70 | 1007.0 |
| 20260902132757 | 60 | 148 | 3.0 | 10.0 | 0.00 | 0.00 | 0.00 | 70 | 1006.9 |
| 20260902132658 | 60 | 255 | 4.0 | 10.0 | 0.00 | 0.00 | 0.00 | 70 | 1006.9 |
| 20260902132556 | 60 | 240 | 4.0 | 10.0 | 0.00 | 0.00 | 0.00 | 70 | 1006.9 |
| 20260902132455 | 60 | 172 | 4.0 | 10.0 | 0.00 | 0.00 | 0.00 | 70 | 1006.9 |
| 20260902132354 | 60 | 177 | 4.0 | 10.0 | 0.00 | 0.00 | 0.00 | 70 | 1006.9 |
| 20260902132254 | 60 | 136 | 4.0 | 10.0 | 0.00 | 0.00 | 0.00 | 70 | 1006.9 |
| 20260902132205 | 60 | 154 | 4.0 | 10.0 | 0.00 | 0.00 | 0.00 | 70 | 1006.9 |
| 20260902132142 | 60 | 181 | 3.0 | 10.0 | 0.00 | 0.00 | 0.00 | 70 | 1006.8 |
| 20260902132122 | 60 | 174 | 3.0 | 8.0 | 0.00 | 0.00 | 0.00 | 70 | 1006.8 |
| 20260902131751 | 60 | 225 | 3.0 | 8.0 | 0.00 | 0.00 | 0.00 | 70 | 1006.8 |
| 20260902131651 | 60 | 124 | 4.0 | 8.0 | 0.00 | 0.00 | 0.00 | 69 | 1006.7 |
| 20260902131550 | 60 | 209 | 3.0 | 8.0 | 0.00 | 0.00 | 0.00 | 70 | 1006.7 |
| 20260902131515 | 60 | 205 | 3.0 | 8.0 | 0.00 | 0.00 | 0.00 | 69 | 1006.7 |
| 20260902131452 | 61 | 221 | 3.0 | 10.0 | 0.00 | 0.00 | 0.00 | 69 | 1006.7 |
| 20260902131431 | 61 | 258 | 3.0 | 13.0 | 0.00 | 0.00 | 0.00 | 69 | 1006.6 |
| 20260902131047 | 61 | 256 | 4.0 | 13.0 | 0.00 | 0.00 | 0.00 | 69 | 1006.6 |
| 20260902130946 | 61 | 196 | 4.0 | 13.0 | 0.00 | 0.00 | 0.00 | 69 | 1006.6 |
| 20260902130846 | 61 | 182 | 4.0 | 13.0 | 0.00 | 0.00 | 0.00 | 69 | 1006.6 |
| 20260902130746 | 61 | 259 | 5.0 | 13.0 | 0.00 | 0.00 | 0.00 | 69 | 1006.6 |
| 20260902130645 | 61 | 158 | 5.0 | 13.0 | 0.00 | 0.00 | 0.00 | 69 | 1006.6 |
| 20260902130544 | 61 | 277 | 4.0 | 13.0 | 0.00 | 0.00 | 0.00 | 69 | 1006.6 |
| 20260902130444 | 61 | 205 | 4.0 | 13.0 | 0.00 | 0.00 | 0.00 | 69 | 1006.7 |
| 20260902130352 | 61 | 164 | 5.0 | 13.0 | 0.00 | 0.00 | 0.00 | 69 | 1006.6 |
| 20260902130329 | 61 | 296 | 5.0 | 13.0 | 0.00 | 0.00 | 0.00 | 69 | 1006.6 |
| 20260902130255 | 61 | 154 | 4.0 | 13.0 | 0.00 | 0.00 | 0.00 | 69 | 1006.5 |
| 20260902130231 | 61 | 165 | 5.0 | 13.0 | 0.00 | 0.00 | 0.00 | 69 | 1006.6 |
| 20260902125937 | 61 | 163 | 4.0 | 13.0 | 0.00 | 0.00 | 0.00 | 69 | 1006.5 |
| 20260902125917 | 61 | 260 | 5.0 | 13.0 | 0.00 | 0.00 | 0.00 | 69 | 1006.5 |
| 20260902125841 | 61 | 167 | 5.0 | 13.0 | 0.00 | 0.00 | 0.00 | 69 | 1006.4 |
| 20260902125820 | 61 | 173 | 6.0 | 13.0 | 0.00 | 0.00 | 0.00 | 70 | 1006.4 |
| 20260902125757 | 61 | 244 | 6.0 | 13.0 | 0.00 | 0.00 | 0.00 | 70 | 1006.4 |
| 20260902125508 | 60 | 251 | 4.0 | 12.0 | 0.00 | 0.00 | 0.00 | 70 | 1006.4 |
| 20260902125204 | 60 | 231 | 5.0 | 12.0 | 0.00 | 0.00 | 0.00 | 70 | 1006.5 |
| 20260902124834 | 60 | 193 | 5.0 | 12.0 | 0.00 | 0.00 | 0.00 | 70 | 1006.5 |
| 20260902124733 | 60 | 248 | 5.0 | 12.0 | 0.00 | 0.00 | 0.00 | 69 | 1006.4 |
| 20260902124633 | 60 | 186 | 4.0 | 14.0 | 0.00 | 0.00 | 0.00 | 69 | 1006.5 |
| 20260902124546 | 60 | 261 | 4.0 | 14.0 | 0.00 | 0.00 | 0.00 | 70 | 1006.5 |
| 20260902124524 | 60 | 221 | 4.0 | 14.0 | 0.00 | 0.00 | 0.00 | 70 | 1006.4 |
| 20260902124504 | 60 | 342 | 3.0 | 14.0 | 0.00 | 0.00 | 0.00 | 70 | 1006.5 |
| 20260902124131 | 61 | 223 | 4.0 | 14.0 | 0.00 | 0.00 | 0.00 | 70 | 1006.5 |
| 20260902124030 | 61 | 193 | 4.0 | 14.0 | 0.00 | 0.00 | 0.00 | 70 | 1006.5 |
| 20260902123932 | 61 | 269 | 4.0 | 14.0 | 0.00 | 0.00 | 0.00 | 70 | 1006.5 |
| 20260902123834 | 61 | 157 | 4.0 | 14.0 | 0.00 | 0.00 | 0.00 | 70 | 1006.5 |
| 20260902123730 | 61 | 205 | 5.0 | 14.0 | 0.00 | 0.00 | 0.00 | 69 | 1006.5 |
| 20260902123630 | 61 | 243 | 6.0 | 13.0 | 0.00 | 0.00 | 0.00 | 69 | 1006.6 |
| 20260902123531 | 61 | 242 | 4.0 | 12.0 | 0.00 | 0.00 | 0.00 | 69 | 1006.6 |
| 20260902123430 | 61 | 217 | 2.0 | 12.0 | 0.00 | 0.00 | 0.00 | 69 | 1006.6 |
| 20260902123329 | 61 | 229 | 2.0 | 12.0 | 0.00 | 0.00 | 0.00 | 69 | 1006.6 |
| 20260902123229 | 61 | 188 | 4.0 | 12.0 | 0.00 | 0.00 | 0.00 | 69 | 1006.5 |
| 20260902123145 | 61 | 206 | 4.0 | 12.0 | 0.00 | 0.00 | 0.00 | 69 | 1006.6 |
| 20260902123120 | 61 | 190 | 3.0 | 12.0 | 0.00 | 0.00 | 0.00 | 69 | 1006.6 |
| 20260902123100 | 61 | 168 | 3.0 | 12.0 | 0.00 | 0.00 | 0.00 | 69 | 1006.6 |
| 20260902122728 | 61 | 153 | 5.0 | 12.0 | 0.00 | 0.00 | 0.00 | 69 | 1006.7 |
| 20260902122645 | 61 | 192 | 5.0 | 12.0 | 0.00 | 0.00 | 0.00 | 69 | 1006.7 |
| 20260902122621 | 61 | 161 | 4.0 | 12.0 | 0.00 | 0.00 | 0.00 | 69 | 1006.7 |
| 20260902122558 | 61 | 187 | 4.0 | 12.0 | 0.00 | 0.00 | 0.00 | 69 | 1006.7 |
| 20260902122257 | 61 | 131 | 4.0 | 15.0 | 0.00 | 0.00 | 0.00 | 69 | 1006.7 |
| 20260902122221 | 61 | 161 | 4.0 | 15.0 | 0.00 | 0.00 | 0.00 | 68 | 1006.8 |
| 20260902122200 | 61 | 221 | 6.0 | 15.0 | 0.00 | 0.00 | 0.00 | 68 | 1006.7 |
| 20260902121829 | 61 | 196 | 6.0 | 15.0 | 0.00 | 0.00 | 0.00 | 69 | 1006.8 |
| 20260902121729 | 61 | 232 | 6.0 | 15.0 | 0.00 | 0.00 | 0.00 | 68 | 1006.8 |
| 20260902121647 | 61 | 218 | 7.0 | 15.0 | 0.00 | 0.00 | 0.00 | 69 | 1006.8 |
| 20260902121529 | 61 | 242 | 7.0 | 15.0 | 0.00 | 0.00 | 0.00 | 69 | 1006.7 |
| 20260902121428 | 61 | 215 | 6.0 | 15.0 | 0.00 | 0.00 | 0.00 | 69 | 1006.8 |
| 20260902121328 | 61 | 185 | 5.0 | 14.0 | 0.00 | 0.00 | 0.00 | 69 | 1006.7 |
| 20260902121229 | 61 | 235 | 5.0 | 14.0 | 0.00 | 0.00 | 0.00 | 69 | 1006.8 |
| 20260902121138 | 61 | 195 | 6.0 | 14.0 | 0.00 | 0.00 | 0.00 | 69 | 1006.7 |
| 20260902121028 | 61 | 198 | 7.0 | 14.0 | 0.00 | 0.00 | 0.00 | 68 | 1006.8 |
| 20260902120930 | 61 | 233 | 6.0 | 14.0 | 0.00 | 0.00 | 0.00 | 68 | 1006.7 |
| 20260902120829 | 61 | 170 | 5.0 | 14.0 | 0.00 | 0.00 | 0.00 | 68 | 1006.7 |
| 20260902120730 | 61 | 265 | 4.0 | 14.0 | 0.00 | 0.00 | 0.00 | 68 | 1006.7 |
| 20260902120637 | 61 | 238 | 4.0 | 14.0 | 0.00 | 0.00 | 0.00 | 68 | 1006.7 |
| 20260902120529 | 62 | 200 | 5.0 | 14.0 | 0.00 | 0.00 | 0.00 | 68 | 1006.7 |
| 20260902120451 | 62 | 259 | 6.0 | 16.0 | 0.00 | 0.00 | 0.00 | 68 | 1006.7 |
| 20260902120428 | 62 | 223 | 7.0 | 16.0 | 0.00 | 0.00 | 0.00 | 68 | 1006.7 |
| 20260902120409 | 62 | 209 | 7.0 | 16.0 | 0.00 | 0.00 | 0.00 | 68 | 1006.7 |
| 20260902120030 | 62 | 206 | 5.0 | 16.0 | 0.00 | 0.00 | 0.00 | 67 | 1006.8 |
| 20260902115929 | 62 | 209 | 6.0 | 16.0 | 0.00 | 0.00 | 0.00 | 67 | 1006.7 |
| 20260902115828 | 62 | 188 | 6.0 | 16.0 | 0.00 | 0.00 | 0.00 | 67 | 1006.7 |
| 20260902115730 | 62 | 218 | 6.0 | 18.0 | 0.00 | 0.00 | 0.00 | 67 | 1006.8 |
| 20260902115633 | 62 | 259 | 6.0 | 18.0 | 0.00 | 0.00 | 0.00 | 67 | 1006.7 |
| 20260902115527 | 62 | 194 | 6.0 | 18.0 | 0.00 | 0.00 | 0.00 | 67 | 1006.7 |
| 20260902115427 | 62 | 165 | 6.0 | 18.0 | 0.00 | 0.00 | 0.00 | 67 | 1006.9 |
| 20260902115326 | 62 | 187 | 5.0 | 18.0 | 0.00 | 0.00 | 0.00 | 67 | 1006.8 |
| 20260902115225 | 62 | 226 | 6.0 | 18.0 | 0.00 | 0.00 | 0.00 | 67 | 1006.9 |
| 20260902115131 | 62 | 251 | 8.0 | 18.0 | 0.00 | 0.00 | 0.00 | 67 | 1006.8 |
| 20260902115024 | 62 | 166 | 7.0 | 18.0 | 0.00 | 0.00 | 0.00 | 67 | 1006.8 |
| 20260902114924 | 62 | 213 | 7.0 | 18.0 | 0.00 | 0.00 | 0.00 | 67 | 1006.8 |
| 20260902114823 | 62 | 234 | 6.0 | 18.0 | 0.00 | 0.00 | 0.00 | 67 | 1006.9 |
| 20260902114723 | 62 | 238 | 5.0 | 14.0 | 0.00 | 0.00 | 0.00 | 67 | 1006.9 |
| 20260902114626 | 62 | 232 | 7.0 | 14.0 | 0.00 | 0.00 | 0.00 | 66 | 1006.9 |
| 20260902114521 | 62 | 134 | 7.0 | 14.0 | 0.00 | 0.00 | 0.00 | 66 | 1006.9 |
| 20260902114436 | 62 | 168 | 6.0 | 14.0 | 0.00 | 0.00 | 0.00 | 66 | 1006.9 |
| 20260902114416 | 62 | 184 | 6.0 | 13.0 | 0.00 | 0.00 | 0.00 | 66 | 1007.0 |
| 20260902114354 | 62 | 283 | 5.0 | 13.0 | 0.00 | 0.00 | 0.00 | 66 | 1007.0 |
| 20260902114333 | 62 | 254 | 4.0 | 13.0 | 0.00 | 0.00 | 0.00 | 66 | 1007.1 |
| 20260902114257 | 62 | 194 | 6.0 | 13.0 | 0.00 | 0.00 | 0.00 | 66 | 1007.0 |
| 20260902114005 | 62 | 172 | 7.0 | 13.0 | 0.00 | 0.00 | 0.00 | 66 | 1007.0 |
| 20260902113945 | 62 | 227 | 6.0 | 13.0 | 0.00 | 0.00 | 0.00 | 66 | 1006.9 |
| 20260902113640 | 62 | 227 | 5.0 | 13.0 | 0.00 | 0.00 | 0.00 | 66 | 1006.9 |
| 20260902113619 | 62 | 215 | 4.0 | 13.0 | 0.00 | 0.00 | 0.00 | 66 | 1006.9 |
| 20260902113558 | 62 | 199 | 5.0 | 13.0 | 0.00 | 0.00 | 0.00 | 66 | 1006.8 |
| 20260902113307 | 62 | 194 | 5.0 | 13.0 | 0.00 | 0.00 | 0.00 | 66 | 1006.8 |
| 20260902113232 | 62 | 200 | 5.0 | 13.0 | 0.00 | 0.00 | 0.00 | 66 | 1006.9 |
| 20260902113209 | 62 | 234 | 6.0 | 13.0 | 0.00 | 0.00 | 0.00 | 66 | 1006.8 |
| 20260902112614 | 62 | 190 | 5.0 | 14.0 | 0.00 | 0.00 | 0.00 | 66 | 1006.8 |
| 20260902112509 | 62 | 234 | 4.0 | 14.0 | 0.00 | 0.00 | 0.00 | 66 | 1006.8 |
| 20260902112408 | 62 | 200 | 6.0 | 16.0 | 0.00 | 0.00 | 0.00 | 66 | 1006.8 |
| 20260902112308 | 62 | 244 | 6.0 | 16.0 | 0.00 | 0.00 | 0.00 | 66 | 1006.8 |
| 20260902112207 | 62 | 180 | 6.0 | 16.0 | 0.00 | 0.00 | 0.00 | 66 | 1006.8 |
| 20260902112110 | 62 | 229 | 8.0 | 16.0 | 0.00 | 0.00 | 0.00 | 66 | 1006.7 |
| 20260902112006 | 62 | 215 | 8.0 | 16.0 | 0.00 | 0.00 | 0.00 | 66 | 1006.8 |
| 20260902111905 | 62 | 134 | 5.0 | 16.0 | 0.00 | 0.00 | 0.00 | 66 | 1006.9 |
| 20260902111804 | 62 | 233 | 5.0 | 16.0 | 0.00 | 0.00 | 0.00 | 66 | 1006.6 |
| 20260902111719 | 62 | 184 | 6.0 | 16.0 | 0.00 | 0.00 | 0.00 | 66 | 1006.7 |
| 20260902111655 | 62 | 122 | 7.0 | 16.0 | 0.00 | 0.00 | 0.00 | 66 | 1006.7 |
| 20260902111618 | 62 | 227 | 6.0 | 16.0 | 0.00 | 0.00 | 0.00 | 66 | 1006.7 |
| 20260902111558 | 62 | 265 | 4.0 | 15.0 | 0.00 | 0.00 | 0.00 | 66 | 1006.7 |
| 20260902111538 | 62 | 202 | 4.0 | 15.0 | 0.00 | 0.00 | 0.00 | 66 | 1006.7 |
| 20260902111510 | 62 | 181 | 4.0 | 15.0 | 0.00 | 0.00 | 0.00 | 66 | 1006.6 |
| 20260902111450 | 62 | 268 | 7.0 | 19.0 | 0.00 | 0.00 | 0.00 | 66 | 1006.6 |
| 20260902111147 | 62 | 147 | 4.0 | 19.0 | 0.00 | 0.00 | 0.00 | 66 | 1006.5 |
| 20260902111124 | 62 | 208 | 5.0 | 19.0 | 0.00 | 0.00 | 0.00 | 66 | 1006.5 |
| 20260902111106 | 62 | 331 | 4.0 | 19.0 | 0.00 | 0.00 | 0.00 | 66 | 1006.5 |
| 20260902110533 | 62 | 157 | 6.0 | 19.0 | 0.00 | 0.00 | 0.00 | 67 | 1006.5 |
| 20260902110203 | 62 | 161 | 6.0 | 19.0 | 0.00 | 0.00 | 0.00 | 67 | 1006.4 |
| 20260902110105 | 62 | 248 | 5.0 | 11.0 | 0.00 | 0.00 | 0.00 | 67 | 1006.4 |
| 20260902110013 | 62 | 157 | 5.0 | 11.0 | 0.00 | 0.00 | 0.00 | 67 | 1006.3 |
| 20260902105951 | 62 | 236 | 4.0 | 12.0 | 0.00 | 0.00 | 0.00 | 67 | 1006.3 |
| 20260902105927 | 62 | 170 | 3.0 | 12.0 | 0.00 | 0.00 | 0.00 | 67 | 1006.4 |
| 20260902105907 | 62 | 202 | 2.0 | 12.0 | 0.00 | 0.00 | 0.00 | 67 | 1006.3 |
| 20260902105845 | 62 | 250 | 4.0 | 12.0 | 0.00 | 0.00 | 0.00 | 67 | 1006.4 |
| 20260902105811 | 62 | 238 | 4.0 | 12.0 | 0.00 | 0.00 | 0.00 | 67 | 1006.4 |
| 20260902105748 | 62 | 225 | 5.0 | 12.0 | 0.00 | 0.00 | 0.00 | 67 | 1006.4 |
| 20260902105458 | 62 | 189 | 5.0 | 12.0 | 0.00 | 0.00 | 0.00 | 67 | 1006.3 |
| 20260902105436 | 62 | 232 | 5.0 | 12.0 | 0.00 | 0.00 | 0.00 | 67 | 1006.4 |
| 20260902105132 | 62 | 184 | 3.0 | 11.0 | 0.00 | 0.00 | 0.00 | 67 | 1006.4 |
| 20260902105108 | 62 | 219 | 4.0 | 11.0 | 0.00 | 0.00 | 0.00 | 67 | 1006.3 |
| 20260902104817 | 62 | 257 | 4.0 | 11.0 | 0.00 | 0.00 | 0.00 | 66 | 1006.3 |
| 20260902104509 | 62 | 59 | 5.0 | 11.0 | 0.00 | 0.00 | 0.00 | 66 | 1006.2 |
| 20260902104449 | 62 | 207 | 4.0 | 12.0 | 0.00 | 0.00 | 0.00 | 66 | 1006.2 |
| 20260902104157 | 62 | 233 | 5.0 | 12.0 | 0.00 | 0.00 | 0.00 | 66 | 1006.2 |
| 20260902104123 | 62 | 123 | 4.0 | 12.0 | 0.00 | 0.00 | 0.00 | 66 | 1006.3 |
| 20260902103751 | 62 | 185 | 4.0 | 12.0 | 0.00 | 0.00 | 0.00 | 66 | 1006.1 |
| 20260902103712 | 62 | 236 | 5.0 | 12.0 | 0.00 | 0.00 | 0.00 | 66 | 1006.1 |
| 20260902103650 | 62 | 221 | 5.0 | 12.0 | 0.00 | 0.00 | 0.00 | 65 | 1006.2 |
| 20260902103613 | 62 | 211 | 3.0 | 12.0 | 0.00 | 0.00 | 0.00 | 65 | 1006.1 |
| 20260902103552 | 62 | 223 | 2.0 | 12.0 | 0.00 | 0.00 | 0.00 | 65 | 1006.1 |
| 20260902103532 | 62 | 204 | 3.0 | 12.0 | 0.00 | 0.00 | 0.00 | 65 | 1006.1 |
| 20260902103240 | 62 | 223 | 4.0 | 12.0 | 0.00 | 0.00 | 0.00 | 65 | 1006.1 |
| 20260902103205 | 62 | 320 | 4.0 | 12.0 | 0.00 | 0.00 | 0.00 | 65 | 1006.1 |
| 20260902102914 | 62 | 346 | 5.0 | 12.0 | 0.00 | 0.00 | 0.00 | 65 | 1006.0 |
| 20260902102550 | 62 | 185 | 6.0 | 12.0 | 0.00 | 0.00 | 0.00 | 65 | 1006.0 |
| 20260902102442 | 62 | 284 | 5.0 | 11.0 | 0.00 | 0.00 | 0.00 | 65 | 1006.0 |
| 20260902102342 | 62 | 204 | 4.0 | 11.0 | 0.00 | 0.00 | 0.00 | 65 | 1006.0 |
| 20260902102250 | 62 | 176 | 5.0 | 11.0 | 0.00 | 0.00 | 0.00 | 65 | 1006.0 |
| 20260902102227 | 62 | 304 | 4.0 | 11.0 | 0.00 | 0.00 | 0.00 | 65 | 1006.0 |
| 20260902102210 | 62 | 158 | 4.0 | 11.0 | 0.00 | 0.00 | 0.00 | 65 | 1006.0 |
| 20260902102135 | 62 | 167 | 4.0 | 9.0 | 0.00 | 0.00 | 0.00 | 65 | 1006.0 |
| 20260902102114 | 62 | 289 | 3.0 | 9.0 | 0.00 | 0.00 | 0.00 | 65 | 1006.0 |
| 20260902102053 | 62 | 184 | 4.0 | 8.0 | 0.00 | 0.00 | 0.00 | 65 | 1006.0 |
| 20260902102033 | 62 | 288 | 3.0 | 8.0 | 0.00 | 0.00 | 0.00 | 65 | 1006.0 |
| 20260902102003 | 62 | 162 | 2.0 | 8.0 | 0.00 | 0.00 | 0.00 | 65 | 1006.1 |
| 20260902101929 | 62 | 270 | 3.0 | 14.0 | 0.00 | 0.00 | 0.00 | 65 | 1006.1 |
| 20260902101908 | 62 | 209 | 4.0 | 14.0 | 0.00 | 0.00 | 0.00 | 65 | 1006.0 |
| 20260902101619 | 62 | 217 | 3.0 | 14.0 | 0.00 | 0.00 | 0.00 | 64 | 1006.0 |
| 20260902101313 | 63 | 210 | 3.0 | 14.0 | 0.00 | 0.00 | 0.00 | 64 | 1006.0 |
| 20260902100740 | 63 | 134 | 5.0 | 14.0 | 0.00 | 0.00 | 0.00 | 64 | 1006.1 |
| 20260902100719 | 63 | 274 | 4.0 | 17.0 | 0.00 | 0.00 | 0.00 | 64 | 1006.2 |
| 20260902100645 | 63 | 242 | 5.0 | 17.0 | 0.00 | 0.00 | 0.00 | 64 | 1006.2 |
| 20260902100351 | 63 | 167 | 4.0 | 17.0 | 0.00 | 0.00 | 0.00 | 63 | 1006.1 |
| 20260902100327 | 63 | 227 | 4.0 | 17.0 | 0.00 | 0.00 | 0.00 | 63 | 1006.1 |
| 20260902100307 | 63 | 261 | 4.0 | 17.0 | 0.00 | 0.00 | 0.00 | 63 | 1006.1 |
| 20260902100230 | 63 | 258 | 5.0 | 17.0 | 0.00 | 0.00 | 0.00 | 63 | 1006.1 |
| 20260902095629 | 63 | 144 | 6.0 | 17.0 | 0.00 | 0.00 | 0.00 | 63 | 1006.2 |
| 20260902095536 | 63 | 173 | 5.0 | 8.0 | 0.00 | 0.00 | 0.00 | 63 | 1006.3 |
| 20260902095444 | 63 | 173 | 4.0 | 10.0 | 0.00 | 0.00 | 0.00 | 63 | 1006.2 |
| 20260902095420 | 63 | 220 | 3.0 | 11.0 | 0.00 | 0.00 | 0.00 | 63 | 1006.3 |
| 20260902095401 | 63 | 247 | 3.0 | 11.0 | 0.00 | 0.00 | 0.00 | 63 | 1006.2 |
| 20260902095032 | 63 | 207 | 3.0 | 11.0 | 0.00 | 0.00 | 0.00 | 63 | 1006.3 |
| 20260902094928 | 63 | 192 | 3.0 | 11.0 | 0.00 | 0.00 | 0.00 | 63 | 1006.3 |
| 20260902094828 | 63 | 220 | 4.0 | 11.0 | 0.00 | 0.00 | 0.00 | 63 | 1006.3 |
| 20260902094729 | 63 | 234 | 4.0 | 11.0 | 0.00 | 0.00 | 0.00 | 63 | 1006.3 |
| 20260902094628 | 63 | 128 | 5.0 | 11.0 | 0.00 | 0.00 | 0.00 | 63 | 1006.3 |
| 20260902094529 | 63 | 185 | 6.0 | 11.0 | 0.00 | 0.00 | 0.00 | 63 | 1006.3 |
| 20260902094431 | 63 | 182 | 4.0 | 11.0 | 0.00 | 0.00 | 0.00 | 63 | 1006.3 |
| 20260902094351 | 63 | 169 | 2.0 | 11.0 | 0.00 | 0.00 | 0.00 | 63 | 1006.3 |
| 20260902094329 | 63 | 224 | 3.0 | 11.0 | 0.00 | 0.00 | 0.00 | 63 | 1006.3 |
| 20260902094308 | 63 | 220 | 4.0 | 11.0 | 0.00 | 0.00 | 0.00 | 63 | 1006.3 |
| 20260902094249 | 63 | 246 | 4.0 | 10.0 | 0.00 | 0.00 | 0.00 | 63 | 1006.3 |
| 20260902093941 | 63 | 192 | 4.0 | 10.0 | 0.00 | 0.00 | 0.00 | 63 | 1006.4 |
| 20260902093920 | 63 | 215 | 4.0 | 11.0 | 0.00 | 0.00 | 0.00 | 63 | 1006.3 |
| 20260902093859 | 63 | 282 | 3.0 | 11.0 | 0.00 | 0.00 | 0.00 | 62 | 1006.2 |
| 20260902093836 | 63 | 259 | 3.0 | 15.0 | 0.00 | 0.00 | 0.00 | 63 | 1006.3 |
| 20260902093804 | 63 | 219 | 2.0 | 15.0 | 0.00 | 0.00 | 0.00 | 62 | 1006.3 |
| 20260902093743 | 63 | 268 | 3.0 | 15.0 | 0.00 | 0.00 | 0.00 | 62 | 1006.2 |
| 20260902093723 | 63 | 119 | 3.0 | 15.0 | 0.00 | 0.00 | 0.00 | 62 | 1006.3 |
| 20260902093701 | 63 | 134 | 3.0 | 15.0 | 0.00 | 0.00 | 0.00 | 62 | 1006.2 |
| 20260902093642 | 63 | 271 | 4.0 | 15.0 | 0.00 | 0.00 | 0.00 | 62 | 1006.2 |
| 20260902093607 | 63 | 294 | 4.0 | 15.0 | 0.00 | 0.00 | 0.00 | 62 | 1006.0 |
| 20260902093547 | 63 | 207 | 6.0 | 15.0 | 0.00 | 0.00 | 0.00 | 62 | 1006.1 |
| 20260902093523 | 63 | 223 | 7.0 | 15.0 | 0.00 | 0.00 | 0.00 | 62 | 1006.0 |
| 20260902093235 | 63 | 203 | 5.0 | 11.0 | 0.00 | 0.00 | 0.00 | 62 | 1006.0 |
| 20260902092704 | 63 | 250 | 4.0 | 11.0 | 0.00 | 0.00 | 0.00 | 61 | 1006.0 |
| 20260902091821 | 64 | 206 | 4.0 | 14.0 | 0.00 | 0.00 | 0.00 | 61 | 1006.0 |
| 20260902091719 | 64 | 218 | 5.0 | 14.0 | 0.00 | 0.00 | 0.00 | 61 | 1006.0 |
| 20260902091620 | 64 | 188 | 5.0 | 14.0 | 0.00 | 0.00 | 0.00 | 61 | 1006.1 |
| 20260902091518 | 64 | 191 | 4.0 | 19.0 | 0.00 | 0.00 | 0.00 | 61 | 1006.1 |
| 20260902091430 | 63 | 174 | 4.0 | 19.0 | 0.00 | 0.00 | 0.00 | 61 | 1006.1 |
| 20260902091407 | 64 | 252 | 4.0 | 19.0 | 0.00 | 0.00 | 0.00 | 61 | 1006.1 |
| 20260902091347 | 63 | 179 | 6.0 | 19.0 | 0.00 | 0.00 | 0.00 | 62 | 1006.1 |
| 20260902091041 | 63 | 157 | 3.0 | 19.0 | 0.00 | 0.00 | 0.00 | 62 | 1006.1 |
| 20260902091004 | 63 | 151 | 3.0 | 19.0 | 0.00 | 0.00 | 0.00 | 62 | 1006.1 |
| 20260902090945 | 63 | 202 | 4.0 | 19.0 | 0.00 | 0.00 | 0.00 | 62 | 1006.1 |
| 20260902090638 | 63 | 255 | 6.0 | 19.0 | 0.00 | 0.00 | 0.00 | 62 | 1006.2 |
| 20260902090615 | 63 | 217 | 6.0 | 13.0 | 0.00 | 0.00 | 0.00 | 62 | 1006.2 |
| 20260902090541 | 63 | 209 | 5.0 | 11.0 | 0.00 | 0.00 | 0.00 | 62 | 1006.2 |
| 20260902090209 | 63 | 202 | 3.0 | 11.0 | 0.00 | 0.00 | 0.00 | 62 | 1006.2 |
| 20260902090109 | 63 | 258 | 4.0 | 11.0 | 0.00 | 0.00 | 0.00 | 62 | 1006.2 |
| 20260902090009 | 63 | 203 | 3.0 | 11.0 | 0.00 | 0.00 | 0.00 | 62 | 1006.2 |
| 20260902085909 | 63 | 268 | 1.0 | 8.0 | 0.00 | 0.00 | 0.00 | 62 | 1006.1 |
| 20260902085809 | 63 | 237 | 3.0 | 8.0 | 0.00 | 0.00 | 0.00 | 62 | 1006.2 |
| 20260902085706 | 63 | 130 | 4.0 | 8.0 | 0.00 | 0.00 | 0.00 | 62 | 1006.1 |
| 20260902085616 | 63 | 201 | 4.0 | 9.0 | 0.00 | 0.00 | 0.00 | 62 | 1006.2 |
| 20260902085553 | 64 | 247 | 3.0 | 10.0 | 0.00 | 0.00 | 0.00 | 62 | 1006.1 |
| 20260902085518 | 64 | 204 | 3.0 | 10.0 | 0.00 | 0.00 | 0.00 | 63 | 1006.2 |
| 20260902085456 | 64 | 169 | 3.0 | 12.0 | 0.00 | 0.00 | 0.00 | 63 | 1006.2 |
| 20260902085436 | 64 | 231 | 3.0 | 12.0 | 0.00 | 0.00 | 0.00 | 63 | 1006.2 |
| 20260902085412 | 64 | 197 | 4.0 | 12.0 | 0.00 | 0.00 | 0.00 | 63 | 1006.2 |
| 20260902084800 | 64 | 242 | 5.0 | 12.0 | 0.00 | 0.00 | 0.00 | 63 | 1006.3 |
| 20260902084700 | 64 | 246 | 4.0 | 12.0 | 0.00 | 0.00 | 0.00 | 63 | 1006.3 |
| 20260902084559 | 64 | 153 | 4.0 | 12.0 | 0.00 | 0.00 | 0.00 | 63 | 1006.3 |
| 20260902084523 | 64 | 192 | 4.0 | 12.0 | 0.00 | 0.00 | 0.00 | 63 | 1006.3 |
| 20260902084447 | 64 | 302 | 4.0 | 12.0 | 0.00 | 0.00 | 0.00 | 63 | 1006.3 |
| 20260902084426 | 64 | 260 | 4.0 | 9.0 | 0.00 | 0.00 | 0.00 | 63 | 1006.3 |
| 20260902084056 | 64 | 240 | 4.0 | 13.0 | 0.00 | 0.00 | 0.00 | 63 | 1006.3 |
| 20260902083956 | 64 | 238 | 3.0 | 13.0 | 0.00 | 0.00 | 0.00 | 63 | 1006.3 |
| 20260902083856 | 64 | 242 | 4.0 | 13.0 | 0.00 | 0.00 | 0.00 | 63 | 1006.2 |
| 20260902083833 | 64 | 175 | 3.0 | 13.0 | 0.00 | 0.00 | 0.00 | 63 | 1006.2 |
| 20260902083813 | 64 | 190 | 4.0 | 13.0 | 0.00 | 0.00 | 0.00 | 63 | 1006.2 |
| 20260902083750 | 64 | 175 | 4.0 | 13.0 | 0.00 | 0.00 | 0.00 | 63 | 1006.3 |
| 20260902083443 | 64 | 146 | 6.0 | 13.0 | 0.00 | 0.00 | 0.00 | 63 | 1006.2 |
| 20260902083421 | 64 | 198 | 6.0 | 15.0 | 0.00 | 0.00 | 0.00 | 63 | 1006.1 |
| 20260902083403 | 64 | 209 | 5.0 | 15.0 | 0.00 | 0.00 | 0.00 | 62 | 1006.1 |
| 20260902083111 | 64 | 209 | 4.0 | 15.0 | 0.00 | 0.00 | 0.00 | 62 | 1006.1 |
| 20260902083036 | 64 | 259 | 4.0 | 15.0 | 0.00 | 0.00 | 0.00 | 62 | 1006.1 |
| 20260902083015 | 64 | 205 | 3.0 | 15.0 | 0.00 | 0.00 | 0.00 | 62 | 1006.1 |
| 20260902082952 | 64 | 168 | 3.0 | 15.0 | 0.00 | 0.00 | 0.00 | 62 | 1006.0 |
| 20260902082931 | 64 | 255 | 6.0 | 15.0 | 0.00 | 0.00 | 0.00 | 62 | 1006.1 |
| 20260902082628 | 64 | 179 | 6.0 | 15.0 | 0.00 | 0.00 | 0.00 | 62 | 1006.0 |
| 20260902082604 | 65 | 140 | 6.0 | 13.0 | 0.00 | 0.00 | 0.00 | 61 | 1006.0 |
| 20260902082544 | 65 | 192 | 5.0 | 12.0 | 0.00 | 0.00 | 0.00 | 61 | 1006.0 |
| 20260902082252 | 65 | 200 | 4.0 | 12.0 | 0.00 | 0.00 | 0.00 | 61 | 1006.0 |
| 20260902081950 | 65 | 212 | 4.0 | 16.0 | 0.00 | 0.00 | 0.00 | 61 | 1005.9 |
| 20260902081929 | 65 | 148 | 4.0 | 16.0 | 0.00 | 0.00 | 0.00 | 60 | 1005.8 |
| 20260902081635 | 65 | 232 | 4.0 | 16.0 | 0.00 | 0.00 | 0.00 | 60 | 1005.9 |
| 20260902081601 | 65 | 187 | 5.0 | 16.0 | 0.00 | 0.00 | 0.00 | 60 | 1005.9 |
| 20260902081309 | 65 | 202 | 6.0 | 16.0 | 0.00 | 0.00 | 0.00 | 59 | 1005.9 |
| 20260902080940 | 65 | 115 | 6.0 | 16.0 | 0.00 | 0.00 | 0.00 | 58 | 1005.9 |
| 20260902080836 | 65 | 173 | 6.0 | 16.0 | 0.00 | 0.00 | 0.00 | 58 | 1005.8 |
| 20260902080736 | 65 | 186 | 5.0 | 12.0 | 0.00 | 0.00 | 0.00 | 58 | 1005.9 |
| 20260902080636 | 65 | 205 | 4.0 | 12.0 | 0.00 | 0.00 | 0.00 | 58 | 1005.9 |
| 20260902080535 | 65 | 209 | 4.0 | 12.0 | 0.00 | 0.00 | 0.00 | 58 | 1005.9 |
| 20260902080437 | 65 | 258 | 3.0 | 12.0 | 0.00 | 0.00 | 0.00 | 58 | 1005.9 |
| 20260902080334 | 65 | 280 | 4.0 | 12.0 | 0.00 | 0.00 | 0.00 | 58 | 1005.9 |
| 20260902080232 | 65 | 252 | 6.0 | 12.0 | 0.00 | 0.00 | 0.00 | 58 | 1006.0 |
| 20260902080142 | 65 | 246 | 6.0 | 12.0 | 0.00 | 0.00 | 0.00 | 57 | 1006.0 |
| 20260902080053 | 65 | 213 | 7.0 | 14.0 | 0.00 | 0.00 | 0.00 | 57 | 1006.0 |
| 20260902080031 | 65 | 208 | 7.0 | 14.0 | 0.00 | 0.00 | 0.00 | 57 | 1006.1 |
| 20260902075956 | 65 | 209 | 5.0 | 14.0 | 0.00 | 0.00 | 0.00 | 57 | 1006.0 |
| 20260902075933 | 66 | 213 | 5.0 | 14.0 | 0.00 | 0.00 | 0.00 | 57 | 1006.0 |
| 20260902075912 | 66 | 182 | 7.0 | 14.0 | 0.00 | 0.00 | 0.00 | 57 | 1006.0 |
| 20260902075850 | 66 | 191 | 6.0 | 14.0 | 0.00 | 0.00 | 0.00 | 57 | 1006.0 |
| 20260902075829 | 66 | 229 | 4.0 | 14.0 | 0.00 | 0.00 | 0.00 | 57 | 1005.9 |
| 20260902075755 | 66 | 196 | 4.0 | 14.0 | 0.00 | 0.00 | 0.00 | 57 | 1006.0 |
| 20260902075734 | 66 | 215 | 4.0 | 14.0 | 0.00 | 0.00 | 0.00 | 57 | 1006.0 |
| 20260902075715 | 66 | 276 | 5.0 | 14.0 | 0.00 | 0.00 | 0.00 | 56 | 1006.1 |
| 20260902075651 | 66 | 229 | 5.0 | 11.0 | 0.00 | 0.00 | 0.00 | 56 | 1006.0 |
| 20260902075631 | 66 | 203 | 4.0 | 12.0 | 0.00 | 0.00 | 0.00 | 56 | 1006.0 |
| 20260902075330 | 66 | 190 | 5.0 | 12.0 | 0.00 | 0.00 | 0.00 | 56 | 1005.9 |
| 20260902075038 | 66 | 292 | 4.0 | 12.0 | 0.00 | 0.00 | 0.00 | 57 | 1005.9 |
| 20260902074505 | 66 | 273 | 4.0 | 12.0 | 0.00 | 0.00 | 0.00 | 57 | 1005.9 |
| 20260902074445 | 66 | 245 | 5.0 | 12.0 | 0.00 | 0.00 | 0.00 | 57 | 1005.9 |
| 20260902074422 | 66 | 182 | 5.0 | 12.0 | 0.00 | 0.00 | 0.00 | 57 | 1005.9 |
| 20260902074118 | 66 | 224 | 5.0 | 12.0 | 0.00 | 0.00 | 0.00 | 57 | 1005.9 |
| 20260902074056 | 66 | 270 | 6.0 | 12.0 | 0.00 | 0.00 | 0.00 | 57 | 1005.9 |
| 20260902074036 | 66 | 232 | 4.0 | 11.0 | 0.00 | 0.00 | 0.00 | 57 | 1005.9 |
| 20260902073742 | 66 | 202 | 4.0 | 11.0 | 0.00 | 0.00 | 0.00 | 57 | 1005.8 |
| 20260902073131 | 66 | 291 | 4.0 | 10.0 | 0.00 | 0.00 | 0.00 | 57 | 1005.8 |
| 20260902073030 | 66 | 186 | 4.0 | 10.0 | 0.00 | 0.00 | 0.00 | 57 | 1005.7 |
| 20260902072929 | 66 | 202 | 3.0 | 10.0 | 0.00 | 0.00 | 0.00 | 57 | 1005.8 |
| 20260902072830 | 66 | 245 | 4.0 | 10.0 | 0.00 | 0.00 | 0.00 | 57 | 1005.8 |
| 20260902072728 | 66 | 123 | 4.0 | 10.0 | 0.00 | 0.00 | 0.00 | 57 | 1005.8 |
| 20260902072628 | 66 | 186 | 5.0 | 10.0 | 0.00 | 0.00 | 0.00 | 57 | 1005.8 |
| 20260902072526 | 66 | 171 | 4.0 | 10.0 | 0.00 | 0.00 | 0.00 | 57 | 1005.7 |
| 20260902072425 | 66 | 189 | 4.0 | 10.0 | 0.00 | 0.00 | 0.00 | 57 | 1005.8 |
| 20260902072325 | 66 | 302 | 5.0 | 11.0 | 0.00 | 0.00 | 0.00 | 57 | 1005.8 |
| 20260902072223 | 66 | 175 | 5.0 | 11.0 | 0.00 | 0.00 | 0.00 | 57 | 1005.7 |
| 20260902072124 | 66 | 244 | 4.0 | 11.0 | 0.00 | 0.00 | 0.00 | 57 | 1005.7 |
| 20260902072036 | 66 | 142 | 4.0 | 11.0 | 0.00 | 0.00 | 0.00 | 57 | 1005.7 |
| 20260902072014 | 66 | 277 | 4.0 | 11.0 | 0.00 | 0.00 | 0.00 | 58 | 1005.7 |
| 20260902071938 | 66 | 211 | 5.0 | 11.0 | 0.00 | 0.00 | 0.00 | 57 | 1005.8 |
| 20260902071917 | 66 | 219 | 6.0 | 13.0 | 0.00 | 0.00 | 0.00 | 57 | 1005.7 |
| 20260902071855 | 66 | 253 | 4.0 | 13.0 | 0.00 | 0.00 | 0.00 | 57 | 1005.7 |
| 20260902071601 | 66 | 184 | 5.0 | 13.0 | 0.00 | 0.00 | 0.00 | 57 | 1005.7 |
| 20260902071218 | 67 | 227 | 4.0 | 13.0 | 0.00 | 0.00 | 0.00 | 57 | 1005.7 |
| 20260902071155 | 67 | 203 | 4.0 | 13.0 | 0.00 | 0.00 | 0.00 | 57 | 1005.7 |
| 20260902071131 | 67 | 206 | 4.0 | 13.0 | 0.00 | 0.00 | 0.00 | 57 | 1005.7 |
| 20260902071111 | 67 | 141 | 4.0 | 13.0 | 0.00 | 0.00 | 0.00 | 56 | 1005.7 |
| 20260902071036 | 67 | 275 | 6.0 | 14.0 | 0.00 | 0.00 | 0.00 | 56 | 1005.7 |
| 20260902070744 | 67 | 294 | 4.0 | 14.0 | 0.00 | 0.00 | 0.00 | 56 | 1005.6 |
| 20260902070413 | 67 | 212 | 4.0 | 14.0 | 0.00 | 0.00 | 0.00 | 56 | 1005.7 |
| 20260902070312 | 67 | 200 | 4.0 | 14.0 | 0.00 | 0.00 | 0.00 | 56 | 1005.6 |
| 20260902070212 | 67 | 207 | 6.0 | 14.0 | 0.00 | 0.00 | 0.00 | 56 | 1005.5 |
| 20260902070111 | 67 | 275 | 7.0 | 14.0 | 0.00 | 0.00 | 0.00 | 56 | 1005.5 |
| 20260902070012 | 67 | 184 | 5.0 | 14.0 | 0.00 | 0.00 | 0.00 | 56 | 1005.6 |
| 20260902065912 | 67 | 224 | 3.0 | 11.0 | 0.00 | 0.00 | 0.00 | 55 | 1005.6 |
| 20260902065812 | 67 | 183 | 3.0 | 11.0 | 0.00 | 0.00 | 0.00 | 55 | 1005.5 |
| 20260902065748 | 67 | 221 | 4.0 | 15.0 | 0.00 | 0.00 | 0.00 | 55 | 1005.6 |
| 20260902065724 | 67 | 262 | 6.0 | 15.0 | 0.00 | 0.00 | 0.00 | 55 | 1005.5 |
| 20260902065703 | 67 | 279 | 6.0 | 15.0 | 0.00 | 0.00 | 0.00 | 55 | 1005.5 |
| 20260902065640 | 67 | 188 | 5.0 | 15.0 | 0.00 | 0.00 | 0.00 | 55 | 1005.5 |
| 20260902065606 | 67 | 255 | 5.0 | 15.0 | 0.00 | 0.00 | 0.00 | 55 | 1005.5 |
| 20260902065544 | 67 | 254 | 5.0 | 15.0 | 0.00 | 0.00 | 0.00 | 55 | 1005.6 |
| 20260902065524 | 67 | 185 | 5.0 | 15.0 | 0.00 | 0.00 | 0.00 | 55 | 1005.6 |
| 20260902065503 | 67 | 225 | 5.0 | 15.0 | 0.00 | 0.00 | 0.00 | 55 | 1005.5 |
| 20260902065443 | 67 | 238 | 7.0 | 15.0 | 0.00 | 0.00 | 0.00 | 55 | 1005.4 |
| 20260902065407 | 67 | 207 | 6.0 | 15.0 | 0.00 | 0.00 | 0.00 | 55 | 1005.5 |
| 20260902065115 | 67 | 169 | 5.0 | 13.0 | 0.00 | 0.00 | 0.00 | 55 | 1005.4 |
| 20260902064825 | 67 | 184 | 8.0 | 13.0 | 0.00 | 0.00 | 0.00 | 55 | 1005.4 |
| 20260902064751 | 67 | 240 | 6.0 | 13.0 | 0.00 | 0.00 | 0.00 | 55 | 1005.3 |
| 20260902064729 | 67 | 242 | 6.0 | 13.0 | 0.00 | 0.00 | 0.00 | 55 | 1005.3 |
| 20260902064709 | 67 | 203 | 6.0 | 13.0 | 0.00 | 0.00 | 0.00 | 55 | 1005.1 |
| 20260902064642 | 67 | 138 | 7.0 | 12.0 | 0.00 | 0.00 | 0.00 | 54 | 1005.3 |
| 20260902064340 | 67 | 182 | 5.0 | 12.0 | 0.00 | 0.00 | 0.00 | 54 | 1005.2 |
| 20260902064320 | 67 | 206 | 6.0 | 13.0 | 0.00 | 0.00 | 0.00 | 55 | 1005.2 |
| 20260902064030 | 67 | 210 | 5.0 | 13.0 | 0.00 | 0.00 | 0.00 | 54 | 1005.1 |
| 20260902064009 | 67 | 244 | 5.0 | 13.0 | 0.00 | 0.00 | 0.00 | 54 | 1005.0 |
| 20260902063933 | 67 | 219 | 5.0 | 13.0 | 0.00 | 0.00 | 0.00 | 54 | 1005.1 |
| 20260902063911 | 67 | 280 | 6.0 | 13.0 | 0.00 | 0.00 | 0.00 | 54 | 1005.0 |
| 20260902063851 | 67 | 128 | 6.0 | 13.0 | 0.00 | 0.00 | 0.00 | 54 | 1005.0 |
| 20260902063829 | 67 | 195 | 5.0 | 13.0 | 0.00 | 0.00 | 0.00 | 54 | 1004.9 |
| 20260902063527 | 67 | 213 | 6.0 | 13.0 | 0.00 | 0.00 | 0.00 | 54 | 1005.0 |
| 20260902063508 | 68 | 256 | 6.0 | 13.0 | 0.00 | 0.00 | 0.00 | 54 | 1004.9 |
| 20260902063445 | 68 | 196 | 6.0 | 13.0 | 0.00 | 0.00 | 0.00 | 54 | 1005.0 |
| 20260902063425 | 68 | 223 | 7.0 | 13.0 | 0.00 | 0.00 | 0.00 | 54 | 1004.9 |
| 20260902063404 | 68 | 207 | 6.0 | 13.0 | 0.00 | 0.00 | 0.00 | 54 | 1005.0 |
| 20260902063330 | 68 | 216 | 5.0 | 13.0 | 0.00 | 0.00 | 0.00 | 54 | 1005.0 |
| 20260902063306 | 68 | 178 | 6.0 | 12.0 | 0.00 | 0.00 | 0.00 | 53 | 1005.0 |
| 20260902063246 | 68 | 246 | 4.0 | 12.0 | 0.00 | 0.00 | 0.00 | 53 | 1005.0 |
| 20260902062216 | 68 | 237 | 6.0 | 12.0 | 0.00 | 0.00 | 0.00 | 53 | 1005.1 |
| 20260902062157 | 68 | 253 | 4.0 | 12.0 | 0.00 | 0.00 | 0.00 | 53 | 1005.2 |
| 20260902061855 | 68 | 186 | 4.0 | 20.0 | 0.00 | 0.00 | 0.00 | 53 | 1005.0 |
| 20260902061833 | 68 | 188 | 5.0 | 20.0 | 0.00 | 0.00 | 0.00 | 53 | 1005.0 |
| 20260902061314 | 68 | 164 | 5.0 | 20.0 | 0.00 | 0.00 | 0.00 | 53 | 1004.9 |
| 20260902060742 | 68 | 298 | 6.0 | 20.0 | 0.00 | 0.00 | 0.00 | 53 | 1005.0 |
| 20260902060721 | 68 | 219 | 7.0 | 20.0 | 0.00 | 0.00 | 0.00 | 52 | 1004.9 |
| 20260902060658 | 68 | 239 | 7.0 | 14.0 | 0.00 | 0.00 | 0.00 | 52 | 1005.0 |
| 20260902060045 | 68 | 136 | 6.0 | 14.0 | 0.00 | 0.00 | 0.00 | 52 | 1004.8 |
| 20260902055944 | 68 | 249 | 6.0 | 14.0 | 0.00 | 0.00 | 0.00 | 52 | 1004.7 |
| 20260902055844 | 69 | 216 | 6.0 | 14.0 | 0.00 | 0.00 | 0.00 | 52 | 1004.8 |
| 20260902055744 | 69 | 223 | 6.0 | 12.0 | 0.00 | 0.00 | 0.00 | 52 | 1004.8 |
| 20260902055658 | 69 | 186 | 6.0 | 15.0 | 0.00 | 0.00 | 0.00 | 52 | 1004.9 |
| 20260902055633 | 69 | 244 | 4.0 | 15.0 | 0.00 | 0.00 | 0.00 | 52 | 1004.9 |
| 20260902055613 | 69 | 235 | 4.0 | 15.0 | 0.00 | 0.00 | 0.00 | 52 | 1004.8 |
| 20260902055240 | 69 | 165 | 4.0 | 15.0 | 0.00 | 0.00 | 0.00 | 52 | 1004.8 |
| 20260902055139 | 69 | 174 | 3.0 | 15.0 | 0.00 | 0.00 | 0.00 | 52 | 1004.8 |
| 20260902055039 | 69 | 217 | 5.0 | 15.0 | 0.00 | 0.00 | 0.00 | 52 | 1004.8 |
| 20260902054938 | 69 | 257 | 8.0 | 15.0 | 0.00 | 0.00 | 0.00 | 52 | 1004.8 |
| 20260902054838 | 69 | 227 | 7.0 | 15.0 | 0.00 | 0.00 | 0.00 | 52 | 1004.8 |
| 20260902054738 | 69 | 188 | 7.0 | 15.0 | 0.00 | 0.00 | 0.00 | 52 | 1004.7 |
| 20260902054637 | 69 | 237 | 6.0 | 12.0 | 0.00 | 0.00 | 0.00 | 52 | 1004.8 |
| 20260902054536 | 69 | 238 | 5.0 | 12.0 | 0.00 | 0.00 | 0.00 | 52 | 1004.7 |
| 20260902054449 | 69 | 264 | 5.0 | 12.0 | 0.00 | 0.00 | 0.00 | 53 | 1004.7 |
| 20260902054427 | 69 | 243 | 6.0 | 12.0 | 0.00 | 0.00 | 0.00 | 52 | 1004.7 |
| 20260902054352 | 69 | 227 | 6.0 | 12.0 | 0.00 | 0.00 | 0.00 | 53 | 1004.7 |
| 20260902054330 | 69 | 197 | 5.0 | 12.0 | 0.00 | 0.00 | 0.00 | 52 | 1004.6 |
| 20260902054036 | 69 | 213 | 6.0 | 11.0 | 0.00 | 0.00 | 0.00 | 52 | 1004.7 |
| 20260902054015 | 69 | 219 | 6.0 | 12.0 | 0.00 | 0.00 | 0.00 | 52 | 1004.6 |
| 20260902053631 | 69 | 164 | 5.0 | 19.0 | 0.00 | 0.00 | 0.00 | 53 | 1004.6 |
| 20260902053530 | 69 | 184 | 6.0 | 19.0 | 0.00 | 0.00 | 0.00 | 53 | 1004.6 |
| 20260902053430 | 69 | 207 | 6.0 | 19.0 | 0.00 | 0.00 | 0.00 | 53 | 1004.6 |
| 20260902053359 | 69 | 211 | 4.0 | 19.0 | 0.00 | 0.00 | 0.00 | 53 | 1004.4 |
| 20260902053327 | 69 | 202 | 5.0 | 19.0 | 0.00 | 0.00 | 0.00 | 53 | 1004.5 |
| 20260902053303 | 69 | 248 | 7.0 | 19.0 | 0.00 | 0.00 | 0.00 | 53 | 1004.6 |
| 20260902053243 | 69 | 217 | 7.0 | 19.0 | 0.00 | 0.00 | 0.00 | 53 | 1004.5 |
| 20260902053222 | 69 | 190 | 6.0 | 19.0 | 0.00 | 0.00 | 0.00 | 53 | 1004.4 |
| 20260902052917 | 69 | 178 | 5.0 | 19.0 | 0.00 | 0.00 | 0.00 | 53 | 1004.6 |
| 20260902052856 | 69 | 163 | 6.0 | 12.0 | 0.00 | 0.00 | 0.00 | 53 | 1004.5 |
| 20260902052833 | 69 | 150 | 6.0 | 12.0 | 0.00 | 0.00 | 0.00 | 53 | 1004.4 |
| 20260902052814 | 69 | 215 | 6.0 | 12.0 | 0.00 | 0.00 | 0.00 | 53 | 1004.6 |
| 20260902052509 | 69 | 226 | 5.0 | 18.0 | 0.00 | 0.00 | 0.00 | 53 | 1004.4 |
| 20260902052446 | 69 | 202 | 5.0 | 18.0 | 0.00 | 0.00 | 0.00 | 53 | 1004.4 |
| 20260902052426 | 69 | 247 | 4.0 | 18.0 | 0.00 | 0.00 | 0.00 | 53 | 1004.2 |
| 20260902052138 | 69 | 227 | 5.0 | 18.0 | 0.00 | 0.00 | 0.00 | 53 | 1004.4 |
| 20260902051524 | 70 | 196 | 5.0 | 18.0 | 0.00 | 0.00 | 0.00 | 53 | 1004.4 |
| 20260902051423 | 70 | 168 | 7.0 | 18.0 | 0.00 | 0.00 | 0.00 | 53 | 1004.4 |
| 20260902051323 | 70 | 247 | 8.0 | 18.0 | 0.00 | 0.00 | 0.00 | 52 | 1004.5 |
| 20260902051242 | 70 | 217 | 7.0 | 12.0 | 0.00 | 0.00 | 0.00 | 52 | 1004.4 |
| 20260902051220 | 70 | 215 | 5.0 | 12.0 | 0.00 | 0.00 | 0.00 | 52 | 1004.2 |
| 20260902051158 | 70 | 187 | 4.0 | 15.0 | 0.00 | 0.00 | 0.00 | 52 | 1004.3 |
| 20260902051137 | 70 | 217 | 3.0 | 15.0 | 0.00 | 0.00 | 0.00 | 52 | 1004.3 |
| 20260902051117 | 70 | 209 | 4.0 | 15.0 | 0.00 | 0.00 | 0.00 | 52 | 1004.2 |
| 20260902050812 | 70 | 200 | 4.0 | 15.0 | 0.00 | 0.00 | 0.00 | 52 | 1004.3 |
| 20260902050749 | 70 | 264 | 6.0 | 15.0 | 0.00 | 0.00 | 0.00 | 52 | 1004.3 |
| 20260902050729 | 70 | 202 | 6.0 | 15.0 | 0.00 | 0.00 | 0.00 | 51 | 1004.3 |
| 20260902050706 | 70 | 170 | 6.0 | 15.0 | 0.00 | 0.00 | 0.00 | 51 | 1004.2 |
| 20260902050632 | 70 | 267 | 6.0 | 15.0 | 0.00 | 0.00 | 0.00 | 51 | 1004.3 |
| 20260902050109 | 71 | 190 | 5.0 | 10.0 | 0.00 | 0.00 | 0.00 | 51 | 1004.2 |
| 20260902050048 | 71 | 192 | 6.0 | 14.0 | 0.00 | 0.00 | 0.00 | 51 | 1004.2 |
| 20260902045745 | 71 | 207 | 5.0 | 14.0 | 0.00 | 0.00 | 0.00 | 51 | 1004.2 |
| 20260902045412 | 71 | 229 | 4.0 | 14.0 | 0.00 | 0.00 | 0.00 | 51 | 1004.2 |
| 20260902045336 | 71 | 258 | 5.0 | 14.0 | 0.00 | 0.00 | 0.00 | 50 | 1004.2 |
| 20260902045305 | 71 | 161 | 3.0 | 14.0 | 0.00 | 0.00 | 0.00 | 50 | 1004.2 |
| 20260902045240 | 71 | 267 | 4.0 | 14.0 | 0.00 | 0.00 | 0.00 | 50 | 1004.2 |
| 20260902044909 | 71 | 197 | 5.0 | 14.0 | 0.00 | 0.00 | 0.00 | 50 | 1004.3 |
| 20260902044837 | 71 | 153 | 5.0 | 14.0 | 0.00 | 0.00 | 0.00 | 50 | 1004.1 |
| 20260902044800 | 71 | 205 | 5.0 | 14.0 | 0.00 | 0.00 | 0.00 | 50 | 1004.2 |
| 20260902044739 | 71 | 181 | 5.0 | 14.0 | 0.00 | 0.00 | 0.00 | 50 | 1004.0 |
| 20260902044406 | 71 | 153 | 3.0 | 14.0 | 0.00 | 0.00 | 0.00 | 50 | 1004.0 |
| 20260902044306 | 71 | 102 | 4.0 | 14.0 | 0.00 | 0.00 | 0.00 | 50 | 1004.0 |
| 20260902044205 | 71 | 239 | 5.0 | 14.0 | 0.00 | 0.00 | 0.00 | 50 | 1004.0 |
| 20260902044101 | 71 | 196 | 5.0 | 14.0 | 0.00 | 0.00 | 0.00 | 49 | 1004.0 |
| 20260902043901 | 71 | 177 | 4.0 | 11.0 | 0.00 | 0.00 | 0.00 | 49 | 1004.0 |
| 20260902043801 | 71 | 182 | 4.0 | 10.0 | 0.00 | 0.00 | 0.00 | 49 | 1004.0 |
| 20260902043702 | 72 | 230 | 5.0 | 10.0 | 0.00 | 0.00 | 0.00 | 49 | 1003.9 |
| 20260902043602 | 72 | 182 | 5.0 | 10.0 | 0.00 | 0.00 | 0.00 | 49 | 1004.0 |
| 20260902043501 | 72 | 200 | 5.0 | 10.0 | 0.00 | 0.00 | 0.00 | 49 | 1003.9 |
| 20260902043400 | 72 | 160 | 5.0 | 11.0 | 0.00 | 0.00 | 0.00 | 49 | 1003.9 |
| 20260902043300 | 72 | 186 | 4.0 | 11.0 | 0.00 | 0.00 | 0.00 | 49 | 1003.9 |
| 20260902043159 | 72 | 219 | 5.0 | 11.0 | 0.00 | 0.00 | 0.00 | 49 | 1003.8 |
| 20260902043058 | 72 | 288 | 5.0 | 11.0 | 0.00 | 0.00 | 0.00 | 48 | 1003.8 |
| 20260902042958 | 72 | 191 | 4.0 | 11.0 | 0.00 | 0.00 | 0.00 | 48 | 1004.0 |
| 20260902042857 | 72 | 168 | 3.0 | 11.0 | 0.00 | 0.00 | 0.00 | 48 | 1003.9 |
| 20260902042757 | 72 | 179 | 3.0 | 11.0 | 0.00 | 0.00 | 0.00 | 48 | 1003.9 |
| 20260902042656 | 72 | 240 | 5.0 | 11.0 | 0.00 | 0.00 | 0.00 | 48 | 1003.9 |
| 20260902042555 | 72 | 194 | 6.0 | 11.0 | 0.00 | 0.00 | 0.00 | 48 | 1003.8 |
| 20260902042455 | 72 | 172 | 4.0 | 11.0 | 0.00 | 0.00 | 0.00 | 48 | 1003.9 |
| 20260902042354 | 73 | 177 | 4.0 | 11.0 | 0.00 | 0.00 | 0.00 | 48 | 1003.8 |
| 20260902042253 | 73 | 259 | 4.0 | 11.0 | 0.00 | 0.00 | 0.00 | 48 | 1003.8 |
| 20260902042153 | 73 | 268 | 5.0 | 11.0 | 0.00 | 0.00 | 0.00 | 47 | 1003.7 |
| 20260902042052 | 73 | 231 | 4.0 | 11.0 | 0.00 | 0.00 | 0.00 | 47 | 1003.7 |
| 20260902041954 | 73 | 214 | 5.0 | 11.0 | 0.00 | 0.00 | 0.00 | 47 | 1003.8 |
| 20260902041854 | 73 | 215 | 5.0 | 11.0 | 0.00 | 0.00 | 0.00 | 47 | 1003.7 |
| 20260902041751 | 73 | 237 | 4.0 | 11.0 | 0.00 | 0.00 | 0.00 | 47 | 1003.7 |
| 20260902041650 | 73 | 190 | 3.0 | 11.0 | 0.00 | 0.00 | 0.00 | 47 | 1003.7 |
| 20260902041550 | 73 | 161 | 5.0 | 11.0 | 0.00 | 0.00 | 0.00 | 47 | 1003.8 |
| 20260902041525 | 73 | 254 | 6.0 | 11.0 | 0.00 | 0.00 | 0.00 | 47 | 1003.7 |
| 20260902041504 | 73 | 180 | 6.0 | 11.0 | 0.00 | 0.00 | 0.00 | 46 | 1003.7 |
| 20260902041442 | 73 | 223 | 5.0 | 11.0 | 0.00 | 0.00 | 0.00 | 46 | 1003.8 |
| 20260902041135 | 73 | 279 | 4.0 | 11.0 | 0.00 | 0.00 | 0.00 | 46 | 1003.6 |
| 20260902041114 | 73 | 160 | 5.0 | 11.0 | 0.00 | 0.00 | 0.00 | 46 | 1003.6 |
| 20260902040743 | 74 | 136 | 5.0 | 12.0 | 0.00 | 0.00 | 0.00 | 45 | 1003.4 |
| 20260902040643 | 74 | 208 | 6.0 | 12.0 | 0.00 | 0.00 | 0.00 | 45 | 1003.4 |
| 20260902040542 | 74 | 158 | 5.0 | 12.0 | 0.00 | 0.00 | 0.00 | 45 | 1003.4 |
| 20260902040509 | 74 | 225 | 5.0 | 12.0 | 0.00 | 0.00 | 0.00 | 45 | 1003.4 |
| 20260902040447 | 74 | 171 | 4.0 | 12.0 | 0.00 | 0.00 | 0.00 | 45 | 1003.4 |
| 20260902040425 | 74 | 236 | 5.0 | 12.0 | 0.00 | 0.00 | 0.00 | 45 | 1003.3 |
| 20260902040351 | 74 | 202 | 6.0 | 12.0 | 0.00 | 0.00 | 0.00 | 45 | 1003.4 |
| 20260902040054 | 74 | 201 | 4.0 | 12.0 | 0.00 | 0.00 | 0.00 | 45 | 1003.6 |
| 20260902040033 | 74 | 194 | 4.0 | 11.0 | 0.00 | 0.00 | 0.00 | 45 | 1003.6 |
| 20260902040013 | 74 | 246 | 5.0 | 10.0 | 0.00 | 0.00 | 0.00 | 45 | 1003.4 |
| 20260902035707 | 74 | 225 | 6.0 | 10.0 | 0.00 | 0.00 | 0.00 | 44 | 1003.6 |
| 20260902035335 | 74 | 185 | 4.0 | 13.0 | 0.00 | 0.00 | 0.00 | 44 | 1003.6 |
| 20260902035235 | 74 | 315 | 4.0 | 13.0 | 0.00 | 0.00 | 0.00 | 44 | 1003.6 |
| 20260902035134 | 74 | 207 | 3.0 | 13.0 | 0.00 | 0.00 | 0.00 | 44 | 1003.4 |
| 20260902035033 | 74 | 219 | 4.0 | 13.0 | 0.00 | 0.00 | 0.00 | 44 | 1003.4 |
| 20260902034933 | 74 | 207 | 4.0 | 13.0 | 0.00 | 0.00 | 0.00 | 43 | 1003.3 |
| 20260902034845 | 74 | 163 | 3.0 | 13.0 | 0.00 | 0.00 | 0.00 | 43 | 1003.3 |
| 20260902034825 | 74 | 199 | 5.0 | 13.0 | 0.00 | 0.00 | 0.00 | 43 | 1003.3 |
| 20260902034748 | 74 | 180 | 5.0 | 13.0 | 0.00 | 0.00 | 0.00 | 43 | 1003.3 |
| 20260902034728 | 74 | 146 | 4.0 | 13.0 | 0.00 | 0.00 | 0.00 | 42 | 1003.4 |
| 20260902034706 | 74 | 273 | 5.0 | 18.0 | 0.00 | 0.00 | 0.00 | 42 | 1003.3 |
| 20260902034644 | 74 | 163 | 4.0 | 18.0 | 0.00 | 0.00 | 0.00 | 42 | 1003.3 |
| 20260902034029 | 75 | 188 | 4.0 | 18.0 | 0.00 | 0.00 | 0.00 | 41 | 1003.3 |
| 20260902033930 | 75 | 231 | 5.0 | 18.0 | 0.00 | 0.00 | 0.00 | 41 | 1003.3 |
| 20260902033901 | 75 | 186 | 7.0 | 18.0 | 0.00 | 0.00 | 0.00 | 41 | 1003.3 |
| 20260902033840 | 75 | 232 | 7.0 | 18.0 | 0.00 | 0.00 | 0.00 | 40 | 1003.3 |
| 20260902033803 | 75 | 158 | 8.0 | 18.0 | 0.00 | 0.00 | 0.00 | 40 | 1003.3 |
| 20260902033741 | 75 | 227 | 10.0 | 18.0 | 0.00 | 0.00 | 0.00 | 40 | 1003.3 |
| 20260902033721 | 75 | 159 | 7.0 | 16.0 | 0.00 | 0.00 | 0.00 | 39 | 1003.2 |
| 20260902033700 | 75 | 196 | 7.0 | 14.0 | 0.00 | 0.00 | 0.00 | 39 | 1003.3 |
| 20260902033356 | 75 | 153 | 5.0 | 13.0 | 0.00 | 0.00 | 0.00 | 39 | 1003.3 |
| 20260902033336 | 75 | 178 | 4.0 | 13.0 | 0.00 | 0.00 | 0.00 | 39 | 1003.2 |
| 20260902033314 | 76 | 179 | 6.0 | 13.0 | 0.00 | 0.00 | 0.00 | 39 | 1003.2 |
| 20260902033026 | 76 | 161 | 6.0 | 13.0 | 0.00 | 0.00 | 0.00 | 39 | 1003.2 |
| 20260902032952 | 76 | 140 | 6.0 | 13.0 | 0.00 | 0.00 | 0.00 | 38 | 1003.2 |
| 20260902032927 | 76 | 207 | 5.0 | 12.0 | 0.00 | 0.00 | 0.00 | 38 | 1003.2 |
| 20260902032906 | 76 | 199 | 4.0 | 12.0 | 0.00 | 0.00 | 0.00 | 38 | 1003.3 |
| 20260902032844 | 76 | 161 | 4.0 | 12.0 | 0.00 | 0.00 | 0.00 | 38 | 1003.2 |
| 20260902032824 | 76 | 210 | 5.0 | 16.0 | 0.00 | 0.00 | 0.00 | 38 | 1003.2 |
| 20260902032250 | 76 | 259 | 5.0 | 16.0 | 0.00 | 0.00 | 0.00 | 38 | 1003.2 |